Wetterdaten: Mittwoch, 27.12.2017
Datum Zeit Temp. Aussen Temp. o. S. +5cm Feuchte Auss BlattFeu 1 Luftdruck Regen Sonnenschein Regendauer Solar Windben Empfang
27.12.2017 00:00 4,2 C 4,4 C 2,8 C 91 % 0 lf 993,2 hPa 0,0 l/m 0 min 0 min 0 W/m 20,3 km/h (4 Bft) 95,65 %
27.12.2017 00:02 4,2 C 4,4 C 2,8 C 91 % 0 lf 993,2 hPa 0,0 l/m 0 min 0 min 0 W/m 20,3 km/h (4 Bft) 93,33 %
27.12.2017 00:04 4,2 C 4,4 C 2,8 C 91 % 0 lf 993,1 hPa 0,0 l/m 0 min 0 min 0 W/m 24,8 km/h (4 Bft) 95,74 %
27.12.2017 00:07 4,2 C 4,4 C 2,8 C 91 % 0 lf 993,1 hPa 0,0 l/m 0 min 0 min 0 W/m 20,3 km/h (4 Bft) 95,74 %
27.12.2017 00:08 4,2 C 4,4 C 2,8 C 91 % 0 lf 993,1 hPa 0,0 l/m 0 min 0 min 0 W/m 20,3 km/h (4 Bft) 92,78 %
27.12.2017 00:10 4,2 C 4,4 C 2,8 C 91 % 0 lf 993,1 hPa 0,0 l/m 0 min 0 min 0 W/m 22,5 km/h (4 Bft) 95,24 %
27.12.2017 00:12 4,2 C 4,4 C 2,8 C 91 % 0 lf 992,9 hPa 0,0 l/m 0 min 0 min 0 W/m 22,5 km/h (4 Bft) 97,78 %
27.12.2017 00:14 4,3 C 4,4 C 3,3 C 91 % 0 lf 992,9 hPa 0,0 l/m 0 min 0 min 0 W/m 18,0 km/h (3 Bft) 95,65 %
27.12.2017 00:16 4,3 C 4,4 C 3,3 C 91 % 0 lf 992,9 hPa 0,0 l/m 0 min 0 min 0 W/m 27,0 km/h (4 Bft) 97,87 %
27.12.2017 00:18 4,3 C 4,4 C 3,3 C 91 % 0 lf 992,8 hPa 0,0 l/m 0 min 0 min 0 W/m 27,0 km/h (4 Bft) 97,87 %
27.12.2017 00:20 4,3 C 4,4 C 3,3 C 91 % 0 lf 992,8 hPa 0,0 l/m 0 min 0 min 0 W/m 20,3 km/h (4 Bft) 97,87 %
27.12.2017 00:22 4,3 C 4,4 C 3,3 C 91 % 0 lf 992,8 hPa 0,0 l/m 0 min 0 min 0 W/m 22,5 km/h (4 Bft) 95,74 %
27.12.2017 00:24 4,3 C 4,4 C 3,3 C 91 % 0 lf 992,7 hPa 0,0 l/m 0 min 0 min 0 W/m 22,5 km/h (4 Bft) 91,30 %
27.12.2017 00:26 4,4 C 4,4 C 3,3 C 91 % 0 lf 992,7 hPa 0,0 l/m 0 min 0 min 0 W/m 27,0 km/h (4 Bft) 93,62 %
27.12.2017 00:28 4,4 C 4,4 C 3,3 C 90 % 0 lf 992,6 hPa 0,0 l/m 0 min 0 min 0 W/m 24,8 km/h (4 Bft) 91,49 %
27.12.2017 00:30 4,4 C 4,4 C 3,3 C 90 % 0 lf 992,6 hPa 0,0 l/m 0 min 0 min 0 W/m 18,0 km/h (3 Bft) 91,49 %
27.12.2017 00:32 4,4 C 4,4 C 3,3 C 90 % 0 lf 992,7 hPa 0,0 l/m 0 min 0 min 0 W/m 22,5 km/h (4 Bft) 93,62 %
27.12.2017 00:34 4,4 C 4,4 C 3,3 C 90 % 0 lf 992,6 hPa 0,0 l/m 0 min 2 min 0 W/m 27,0 km/h (4 Bft) 93,62 %
27.12.2017 00:36 4,5 C 4,4 C 3,3 C 90 % 0 lf 992,5 hPa 0,0 l/m 0 min 0 min 0 W/m 22,5 km/h (4 Bft) 93,48 %
27.12.2017 00:38 4,5 C 4,4 C 3,3 C 90 % 0 lf 992,5 hPa 0,0 l/m 0 min 0 min 0 W/m 22,5 km/h (4 Bft) 95,74 %
27.12.2017 00:40 4,5 C 4,4 C 3,3 C 90 % 0 lf 992,4 hPa 0,0 l/m 0 min 0 min 0 W/m 18,0 km/h (3 Bft) 97,87 %
27.12.2017 00:42 4,6 C 4,4 C 3,3 C 90 % 0 lf 992,4 hPa 0,0 l/m 0 min 0 min 0 W/m 20,3 km/h (4 Bft) 95,74 %
27.12.2017 00:44 4,6 C 5,0 C 3,3 C 90 % 0 lf 992,3 hPa 0,0 l/m 0 min 0 min 0 W/m 27,0 km/h (4 Bft) 95,74 %
27.12.2017 00:46 4,6 C 5,0 C 3,3 C 90 % 0 lf 992,2 hPa 0,0 l/m 0 min 2 min 0 W/m 27,0 km/h (4 Bft) 95,74 %
27.12.2017 00:48 4,6 C 5,0 C 3,3 C 90 % 0 lf 992,2 hPa 0,0 l/m 0 min 2 min 0 W/m 18,0 km/h (3 Bft) 93,48 %
27.12.2017 00:50 4,6 C 5,0 C 3,3 C 90 % 0 lf 992,1 hPa 0,0 l/m 0 min 0 min 0 W/m 24,8 km/h (4 Bft) 95,74 %
27.12.2017 00:52 4,7 C 5,0 C 3,3 C 90 % 0 lf 992,1 hPa 0,0 l/m 0 min 0 min 0 W/m 20,3 km/h (4 Bft) 95,74 %
27.12.2017 00:54 4,7 C 5,0 C 3,3 C 90 % 0 lf 991,9 hPa 0,0 l/m 0 min 0 min 0 W/m 20,3 km/h (4 Bft) 93,62 %
27.12.2017 00:56 4,7 C 5,0 C 3,3 C 90 % 0 lf 991,9 hPa 0,0 l/m 0 min 0 min 0 W/m 18,0 km/h (3 Bft) 95,74 %
27.12.2017 00:58 4,7 C 5,0 C 3,3 C 90 % 0 lf 991,8 hPa 0,0 l/m 0 min 0 min 0 W/m 22,5 km/h (4 Bft) 91,49 %
27.12.2017 01:00 4,7 C 5,0 C 3,3 C 90 % 0 lf 991,9 hPa 0,0 l/m 0 min 0 min 0 W/m 24,8 km/h (4 Bft) 95,65 %
27.12.2017 01:02 4,7 C 5,0 C 3,3 C 90 % 0 lf 991,8 hPa 0,0 l/m 0 min 0 min 0 W/m 15,8 km/h (3 Bft) 95,74 %
27.12.2017 01:04 4,8 C 5,0 C 3,9 C 90 % 0 lf 991,7 hPa 0,0 l/m 0 min 0 min 0 W/m 18,0 km/h (3 Bft) 93,62 %
27.12.2017 01:06 4,8 C 5,0 C 3,9 C 90 % 0 lf 991,6 hPa 0,0 l/m 0 min 0 min 0 W/m 22,5 km/h (4 Bft) 93,62 %
27.12.2017 01:08 4,8 C 5,0 C 3,9 C 90 % 0 lf 991,5 hPa 0,0 l/m 0 min 0 min 0 W/m 24,8 km/h (4 Bft) 97,87 %
27.12.2017 01:10 4,8 C 5,0 C 3,9 C 90 % 0 lf 991,5 hPa 0,0 l/m 0 min 0 min 0 W/m 27,0 km/h (4 Bft) 97,87 %
27.12.2017 01:12 4,9 C 5,0 C 3,9 C 90 % 0 lf 991,4 hPa 0,0 l/m 0 min 0 min 0 W/m 20,3 km/h (4 Bft) 97,83 %
27.12.2017 01:14 4,9 C 5,0 C 3,9 C 90 % 0 lf 991,3 hPa 0,0 l/m 0 min 0 min 0 W/m 24,8 km/h (4 Bft) 97,87 %
27.12.2017 01:16 4,9 C 5,6 C 3,9 C 90 % 0 lf 991,2 hPa 0,0 l/m 0 min 0 min 0 W/m 24,8 km/h (4 Bft) 97,87 %
27.12.2017 01:18 5,0 C 5,6 C 3,9 C 89 % 0 lf 991,3 hPa 0,0 l/m 0 min 0 min 0 W/m 24,8 km/h (4 Bft) 97,87 %
27.12.2017 01:20 5,1 C 5,6 C 3,9 C 89 % 0 lf 991,2 hPa 0,0 l/m 0 min 0 min 0 W/m 20,3 km/h (4 Bft) 97,87 %
27.12.2017 01:22 5,1 C 5,6 C 3,9 C 89 % 0 lf 991,2 hPa 0,0 l/m 0 min 0 min 0 W/m 24,8 km/h (4 Bft) 93,62 %
27.12.2017 01:24 5,1 C 5,6 C 3,9 C 89 % 0 lf 991,1 hPa 0,0 l/m 0 min 0 min 0 W/m 24,8 km/h (4 Bft) 97,83 %
27.12.2017 01:26 5,2 C 5,6 C 3,9 C 89 % 0 lf 991,2 hPa 0,0 l/m 0 min 0 min 0 W/m 27,0 km/h (4 Bft) 97,87 %
27.12.2017 01:28 5,2 C 5,6 C 3,9 C 89 % 0 lf 991,1 hPa 0,0 l/m 0 min 0 min 0 W/m 22,5 km/h (4 Bft) 97,87 %
27.12.2017 01:30 5,2 C 5,6 C 3,9 C 89 % 0 lf 991,1 hPa 0,0 l/m 0 min 0 min 0 W/m 31,5 km/h (5 Bft) 97,87 %
27.12.2017 01:32 5,3 C 5,6 C 3,9 C 89 % 0 lf 991,1 hPa 0,0 l/m 0 min 0 min 0 W/m 33,8 km/h (5 Bft) 100,00 %
27.12.2017 01:34 5,3 C 5,6 C 3,9 C 89 % 0 lf 990,9 hPa 0,0 l/m 0 min 0 min 0 W/m 27,0 km/h (4 Bft) 100,00 %
27.12.2017 01:36 5,3 C 5,6 C 3,9 C 88 % 0 lf 991,0 hPa 0,0 l/m 0 min 0 min 0 W/m 18,0 km/h (3 Bft) 97,87 %
27.12.2017 01:38 5,3 C 5,6 C 3,9 C 88 % 0 lf 990,9 hPa 0,0 l/m 0 min 0 min 0 W/m 36,0 km/h (5 Bft) 100,00 %
27.12.2017 01:40 5,3 C 5,6 C 3,9 C 88 % 0 lf 990,7 hPa 0,0 l/m 0 min 0 min 0 W/m 24,8 km/h (4 Bft) 97,87 %
27.12.2017 01:42 5,4 C 5,6 C 3,9 C 88 % 0 lf 990,7 hPa 0,0 l/m 0 min 0 min 0 W/m 33,8 km/h (5 Bft) 97,87 %
27.12.2017 01:44 5,4 C 5,6 C 4,4 C 88 % 0 lf 990,7 hPa 0,0 l/m 0 min 0 min 0 W/m 33,8 km/h (5 Bft) 100,00 %
27.12.2017 01:46 5,4 C 5,6 C 3,9 C 88 % 0 lf 990,6 hPa 0,0 l/m 0 min 0 min 0 W/m 22,5 km/h (4 Bft) 97,83 %
27.12.2017 01:48 5,4 C 5,6 C 3,9 C 88 % 0 lf 990,6 hPa 0,0 l/m 0 min 0 min 0 W/m 27,0 km/h (4 Bft) 100,00 %
27.12.2017 01:50 5,4 C 5,6 C 4,4 C 88 % 0 lf 990,5 hPa 0,0 l/m 0 min 0 min 0 W/m 27,0 km/h (4 Bft) 97,87 %
27.12.2017 01:52 5,4 C 5,6 C 4,4 C 87 % 0 lf 990,3 hPa 0,0 l/m 0 min 0 min 0 W/m 31,5 km/h (5 Bft) 95,74 %
27.12.2017 01:54 5,4 C 5,6 C 4,4 C 87 % 0 lf 990,3 hPa 0,0 l/m 0 min 0 min 0 W/m 29,3 km/h (5 Bft) 100,00 %
27.12.2017 01:56 5,4 C 5,6 C 4,4 C 87 % 0 lf 990,1 hPa 0,0 l/m 0 min 0 min 0 W/m 36,0 km/h (5 Bft) 100,00 %
27.12.2017 01:58 5,5 C 5,6 C 4,4 C 87 % 0 lf 990,1 hPa 0,0 l/m 0 min 0 min 0 W/m 31,5 km/h (5 Bft) 100,00 %
27.12.2017 02:00 5,5 C 5,6 C 4,4 C 87 % 0 lf 990,1 hPa 0,0 l/m 0 min 0 min 0 W/m 33,8 km/h (5 Bft) 95,74 %
27.12.2017 02:02 5,5 C 5,6 C 4,4 C 87 % 0 lf 990,0 hPa 0,0 l/m 0 min 0 min 0 W/m 36,0 km/h (5 Bft) 97,87 %
27.12.2017 02:04 5,5 C 5,6 C 4,4 C 87 % 0 lf 989,9 hPa 0,0 l/m 0 min 0 min 0 W/m 24,8 km/h (4 Bft) 97,87 %
27.12.2017 02:06 5,5 C 5,6 C 4,4 C 87 % 0 lf 989,9 hPa 0,0 l/m 0 min 0 min 0 W/m 40,6 km/h (6 Bft) 97,87 %
27.12.2017 02:08 5,5 C 5,6 C 4,4 C 87 % 0 lf 989,8 hPa 0,0 l/m 0 min 0 min 0 W/m 24,8 km/h (4 Bft) 95,74 %
27.12.2017 02:10 5,6 C 5,6 C 4,4 C 87 % 0 lf 989,8 hPa 0,0 l/m 0 min 0 min 0 W/m 29,3 km/h (5 Bft) 97,83 %
27.12.2017 02:12 5,6 C 5,6 C 4,4 C 87 % 0 lf 989,7 hPa 0,0 l/m 0 min 0 min 0 W/m 31,5 km/h (5 Bft) 95,74 %
27.12.2017 02:14 5,6 C 5,6 C 4,4 C 87 % 0 lf 989,8 hPa 0,0 l/m 0 min 0 min 0 W/m 33,8 km/h (5 Bft) 95,74 %
27.12.2017 02:16 5,6 C 5,6 C 4,4 C 87 % 0 lf 989,6 hPa 0,0 l/m 0 min 0 min 0 W/m 40,6 km/h (6 Bft) 95,74 %
27.12.2017 02:18 5,6 C 5,6 C 4,4 C 87 % 0 lf 989,6 hPa 0,0 l/m 0 min 0 min 0 W/m 38,3 km/h (5 Bft) 97,87 %
27.12.2017 02:20 5,6 C 5,6 C 3,9 C 86 % 0 lf 989,6 hPa 0,0 l/m 0 min 0 min 0 W/m 29,3 km/h (5 Bft) 93,62 %
27.12.2017 02:22 5,6 C 5,6 C 3,9 C 86 % 0 lf 989,5 hPa 0,0 l/m 0 min 0 min 0 W/m 29,3 km/h (5 Bft) 95,65 %
27.12.2017 02:24 5,6 C 5,6 C 3,9 C 86 % 0 lf 989,5 hPa 0,0 l/m 0 min 0 min 0 W/m 27,0 km/h (4 Bft) 93,62 %
27.12.2017 02:26 5,6 C 5,6 C 3,9 C 86 % 0 lf 989,4 hPa 0,0 l/m 0 min 0 min 0 W/m 33,8 km/h (5 Bft) 95,74 %
27.12.2017 02:28 5,6 C 5,6 C 3,9 C 86 % 0 lf 989,3 hPa 0,0 l/m 0 min 0 min 0 W/m 29,3 km/h (5 Bft) 95,74 %
27.12.2017 02:30 5,6 C 5,6 C 3,9 C 86 % 0 lf 989,3 hPa 0,0 l/m 0 min 0 min 0 W/m 27,0 km/h (4 Bft) 93,62 %
27.12.2017 02:32 5,6 C 5,6 C 4,4 C 86 % 0 lf 989,4 hPa 0,0 l/m 0 min 0 min 0 W/m 29,3 km/h (5 Bft) 95,74 %
27.12.2017 02:34 5,6 C 5,6 C 3,9 C 86 % 0 lf 989,3 hPa 0,0 l/m 0 min 0 min 0 W/m 24,8 km/h (4 Bft) 95,65 %
27.12.2017 02:36 5,6 C 5,6 C 3,9 C 86 % 0 lf 989,2 hPa 0,0 l/m 0 min 0 min 0 W/m 29,3 km/h (5 Bft) 97,87 %
27.12.2017 02:38 5,6 C 5,6 C 3,9 C 86 % 0 lf 989,2 hPa 0,0 l/m 0 min 0 min 0 W/m 36,0 km/h (5 Bft) 95,74 %
27.12.2017 02:40 5,6 C 5,6 C 3,9 C 86 % 0 lf 989,1 hPa 0,0 l/m 0 min 0 min 0 W/m 29,3 km/h (5 Bft) 97,87 %
27.12.2017 02:42 5,6 C 5,6 C 3,9 C 86 % 0 lf 989,0 hPa 0,0 l/m 0 min 0 min 0 W/m 33,8 km/h (5 Bft) 95,74 %
27.12.2017 02:44 5,6 C 5,6 C 3,9 C 86 % 0 lf 989,1 hPa 0,0 l/m 0 min 0 min 0 W/m 29,3 km/h (5 Bft) 97,83 %
27.12.2017 02:46 5,6 C 5,6 C 3,9 C 86 % 0 lf 989,0 hPa 0,0 l/m 0 min 0 min 0 W/m 31,5 km/h (5 Bft) 95,74 %
27.12.2017 02:48 5,6 C 5,6 C 4,4 C 86 % 0 lf 988,9 hPa 0,0 l/m 0 min 0 min 0 W/m 31,5 km/h (5 Bft) 95,74 %
27.12.2017 02:50 5,6 C 5,6 C 4,4 C 86 % 0 lf 988,9 hPa 0,0 l/m 0 min 0 min 0 W/m 27,0 km/h (4 Bft) 95,74 %
27.12.2017 02:52 5,6 C 5,6 C 4,4 C 86 % 0 lf 988,8 hPa 0,0 l/m 0 min 0 min 0 W/m 24,8 km/h (4 Bft) 97,87 %
27.12.2017 02:54 5,6 C 5,6 C 4,4 C 86 % 0 lf 988,8 hPa 0,0 l/m 0 min 0 min 0 W/m 27,0 km/h (4 Bft) 93,62 %
27.12.2017 02:56 5,6 C 5,6 C 4,4 C 86 % 0 lf 988,7 hPa 0,0 l/m 0 min 0 min 0 W/m 31,5 km/h (5 Bft) 97,83 %
27.12.2017 02:58 5,6 C 5,6 C 4,4 C 86 % 0 lf 988,6 hPa 0,0 l/m 0 min 0 min 0 W/m 33,8 km/h (5 Bft) 100,00 %
27.12.2017 03:00 5,6 C 5,6 C 4,4 C 86 % 0 lf 988,6 hPa 0,0 l/m 0 min 0 min 0 W/m 36,0 km/h (5 Bft) 100,00 %
27.12.2017 03:02 5,6 C 5,6 C 3,9 C 86 % 0 lf 988,6 hPa 0,0 l/m 0 min 0 min 0 W/m 29,3 km/h (5 Bft) 100,00 %
27.12.2017 03:04 5,5 C 5,6 C 3,9 C 86 % 0 lf 988,5 hPa 0,0 l/m 0 min 0 min 0 W/m 29,3 km/h (5 Bft) 95,74 %
27.12.2017 03:06 5,5 C 5,6 C 3,9 C 86 % 0 lf 988,5 hPa 0,0 l/m 0 min 0 min 0 W/m 24,8 km/h (4 Bft) 97,87 %
27.12.2017 03:08 5,5 C 5,6 C 3,9 C 86 % 0 lf 988,5 hPa 0,0 l/m 0 min 0 min 0 W/m 38,3 km/h (5 Bft) 97,83 %
27.12.2017 03:10 5,5 C 5,6 C 3,9 C 86 % 0 lf 988,6 hPa 0,0 l/m 0 min 0 min 0 W/m 24,8 km/h (4 Bft) 97,87 %
27.12.2017 03:12 5,5 C 5,6 C 3,9 C 86 % 0 lf 988,5 hPa 0,0 l/m 0 min 0 min 0 W/m 27,0 km/h (4 Bft) 97,87 %
27.12.2017 03:14 5,5 C 5,6 C 3,9 C 86 % 0 lf 988,4 hPa 0,0 l/m 0 min 0 min 0 W/m 29,3 km/h (5 Bft) 97,87 %
27.12.2017 03:16 5,5 C 5,6 C 3,9 C 86 % 0 lf 988,4 hPa 0,0 l/m 0 min 0 min 0 W/m 20,3 km/h (4 Bft) 95,74 %
27.12.2017 03:18 5,5 C 5,6 C 3,9 C 86 % 0 lf 988,4 hPa 0,0 l/m 0 min 0 min 0 W/m 22,5 km/h (4 Bft) 93,62 %
27.12.2017 03:20 5,5 C 5,6 C 3,9 C 86 % 0 lf 988,2 hPa 0,0 l/m 0 min 0 min 0 W/m 29,3 km/h (5 Bft) 97,83 %
27.12.2017 03:22 5,4 C 5,6 C 3,9 C 86 % 0 lf 988,1 hPa 0,0 l/m 0 min 0 min 0 W/m 27,0 km/h (4 Bft) 97,87 %
27.12.2017 03:24 5,4 C 5,6 C 3,9 C 86 % 0 lf 988,1 hPa 0,0 l/m 0 min 0 min 0 W/m 33,8 km/h (5 Bft) 97,87 %
27.12.2017 03:26 5,4 C 5,6 C 3,9 C 86 % 0 lf 988,1 hPa 0,0 l/m 0 min 0 min 0 W/m 31,5 km/h (5 Bft) 93,62 %
27.12.2017 03:28 5,4 C 5,6 C 4,4 C 86 % 0 lf 987,9 hPa 0,0 l/m 0 min 0 min 0 W/m 31,5 km/h (5 Bft) 97,87 %
27.12.2017 03:30 5,4 C 5,6 C 3,9 C 86 % 0 lf 987,9 hPa 0,0 l/m 0 min 0 min 0 W/m 29,3 km/h (5 Bft) 97,87 %
27.12.2017 03:32 5,4 C 5,6 C 3,9 C 86 % 0 lf 987,8 hPa 0,0 l/m 0 min 0 min 0 W/m 27,0 km/h (4 Bft) 97,83 %
27.12.2017 03:34 5,5 C 5,6 C 3,9 C 86 % 0 lf 987,8 hPa 0,0 l/m 0 min 0 min 0 W/m 29,3 km/h (5 Bft) 93,62 %
27.12.2017 03:36 5,4 C 5,6 C 3,9 C 86 % 0 lf 987,8 hPa 0,0 l/m 0 min 0 min 0 W/m 29,3 km/h (5 Bft) 97,87 %
27.12.2017 03:38 5,4 C 5,6 C 3,9 C 85 % 0 lf 987,6 hPa 0,0 l/m 0 min 0 min 0 W/m 31,5 km/h (5 Bft) 97,87 %
27.12.2017 03:40 5,4 C 5,6 C 3,9 C 86 % 0 lf 987,6 hPa 0,0 l/m 0 min 0 min 0 W/m 24,8 km/h (4 Bft) 97,87 %
27.12.2017 03:42 5,4 C 5,6 C 3,9 C 85 % 0 lf 987,5 hPa 0,0 l/m 0 min 0 min 0 W/m 29,3 km/h (5 Bft) 97,87 %
27.12.2017 03:44 5,4 C 5,6 C 3,9 C 85 % 0 lf 987,4 hPa 0,0 l/m 0 min 0 min 0 W/m 20,3 km/h (4 Bft) 95,65 %
27.12.2017 03:46 5,4 C 5,6 C 3,9 C 85 % 0 lf 987,4 hPa 0,0 l/m 0 min 0 min 0 W/m 31,5 km/h (5 Bft) 97,87 %
27.12.2017 03:48 5,4 C 5,6 C 3,9 C 85 % 0 lf 987,2 hPa 0,0 l/m 0 min 0 min 0 W/m 27,0 km/h (4 Bft) 91,49 %
27.12.2017 03:50 5,4 C 5,6 C 3,9 C 86 % 0 lf 987,2 hPa 0,0 l/m 0 min 0 min 0 W/m 36,0 km/h (5 Bft) 100,00 %
27.12.2017 03:52 5,4 C 5,6 C 3,9 C 86 % 0 lf 987,2 hPa 0,0 l/m 0 min 0 min 0 W/m 22,5 km/h (4 Bft) 100,00 %
27.12.2017 03:54 5,4 C 5,0 C 3,9 C 86 % 0 lf 987,0 hPa 0,0 l/m 0 min 0 min 0 W/m 22,5 km/h (4 Bft) 97,83 %
27.12.2017 03:56 5,4 C 5,0 C 3,9 C 86 % 0 lf 987,0 hPa 0,0 l/m 0 min 0 min 0 W/m 22,5 km/h (4 Bft) 100,00 %
27.12.2017 03:58 5,4 C 5,0 C 3,9 C 86 % 0 lf 987,0 hPa 0,0 l/m 0 min 0 min 0 W/m 29,3 km/h (5 Bft) 97,87 %
27.12.2017 04:00 5,4 C 5,0 C 3,9 C 86 % 0 lf 987,0 hPa 0,0 l/m 0 min 0 min 0 W/m 29,3 km/h (5 Bft) 95,74 %
27.12.2017 04:05 5,3 C 5,0 C 3,9 C 86 % 0 lf 986,9 hPa 0,0 l/m 0 min 0 min 0 W/m 29,3 km/h (5 Bft) 98,39 %
27.12.2017 04:06 5,3 C 5,0 C 3,9 C 86 % 0 lf 986,9 hPa 0,0 l/m 0 min 0 min 0 W/m 27,0 km/h (4 Bft) 100,00 %
27.12.2017 04:08 5,3 C 5,0 C 3,9 C 86 % 0 lf 986,9 hPa 0,0 l/m 0 min 0 min 0 W/m 20,3 km/h (4 Bft) 95,74 %
27.12.2017 04:10 5,3 C 5,0 C 3,9 C 86 % 0 lf 986,7 hPa 0,0 l/m 0 min 0 min 0 W/m 29,3 km/h (5 Bft) 97,87 %
27.12.2017 04:12 5,3 C 5,0 C 3,9 C 86 % 0 lf 986,7 hPa 0,0 l/m 0 min 0 min 0 W/m 22,5 km/h (4 Bft) 95,74 %
27.12.2017 04:14 5,3 C 5,0 C 3,9 C 86 % 0 lf 986,6 hPa 0,0 l/m 0 min 0 min 0 W/m 27,0 km/h (4 Bft) 95,74 %
27.12.2017 04:16 5,3 C 5,0 C 3,9 C 86 % 0 lf 986,6 hPa 0,0 l/m 0 min 0 min 0 W/m 27,0 km/h (4 Bft) 91,49 %
27.12.2017 04:18 5,3 C 5,0 C 3,9 C 86 % 0 lf 986,6 hPa 0,0 l/m 0 min 0 min 0 W/m 22,5 km/h (4 Bft) 95,65 %
27.12.2017 04:20 5,3 C 5,0 C 3,9 C 86 % 0 lf 986,5 hPa 0,0 l/m 0 min 0 min 0 W/m 22,5 km/h (4 Bft) 97,87 %
27.12.2017 04:22 5,3 C 5,0 C 3,9 C 86 % 0 lf 986,5 hPa 0,0 l/m 0 min 0 min 0 W/m 20,3 km/h (4 Bft) 93,62 %
27.12.2017 04:24 5,2 C 5,0 C 3,9 C 86 % 0 lf 986,4 hPa 0,0 l/m 0 min 0 min 0 W/m 20,3 km/h (4 Bft) 95,74 %
27.12.2017 04:26 5,2 C 5,0 C 3,9 C 86 % 0 lf 986,3 hPa 0,0 l/m 0 min 0 min 0 W/m 20,3 km/h (4 Bft) 93,62 %
27.12.2017 04:28 5,2 C 5,0 C 3,9 C 86 % 0 lf 986,2 hPa 0,0 l/m 0 min 0 min 0 W/m 27,0 km/h (4 Bft) 91,49 %
27.12.2017 04:30 5,2 C 5,0 C 3,9 C 86 % 0 lf 986,1 hPa 0,0 l/m 0 min 0 min 0 W/m 27,0 km/h (4 Bft) 97,83 %
27.12.2017 04:32 5,2 C 5,0 C 3,9 C 86 % 0 lf 986,0 hPa 0,0 l/m 0 min 0 min 0 W/m 27,0 km/h (4 Bft) 95,74 %
27.12.2017 04:34 5,2 C 5,0 C 3,9 C 86 % 0 lf 986,0 hPa 0,0 l/m 0 min 0 min 0 W/m 27,0 km/h (4 Bft) 95,74 %
27.12.2017 04:36 5,2 C 5,0 C 3,9 C 86 % 0 lf 985,9 hPa 0,0 l/m 0 min 0 min 0 W/m 31,5 km/h (5 Bft) 95,74 %
27.12.2017 04:38 5,2 C 5,0 C 3,9 C 86 % 0 lf 985,9 hPa 0,0 l/m 0 min 0 min 0 W/m 22,5 km/h (4 Bft) 97,87 %
27.12.2017 04:40 5,2 C 5,0 C 3,9 C 86 % 0 lf 985,8 hPa 0,0 l/m 0 min 0 min 0 W/m 22,5 km/h (4 Bft) 97,87 %
27.12.2017 04:42 5,2 C 5,0 C 3,9 C 86 % 0 lf 985,8 hPa 0,0 l/m 0 min 0 min 0 W/m 20,3 km/h (4 Bft) 95,65 %
27.12.2017 04:44 5,2 C 5,0 C 3,9 C 86 % 0 lf 985,8 hPa 0,0 l/m 0 min 0 min 0 W/m 27,0 km/h (4 Bft) 91,49 %
27.12.2017 04:46 5,2 C 5,0 C 3,9 C 86 % 0 lf 985,8 hPa 0,0 l/m 0 min 0 min 0 W/m 27,0 km/h (4 Bft) 95,74 %
27.12.2017 04:48 5,2 C 5,0 C 3,9 C 86 % 0 lf 985,7 hPa 0,0 l/m 0 min 0 min 0 W/m 24,8 km/h (4 Bft) 97,87 %
27.12.2017 04:50 5,2 C 5,6 C 3,9 C 86 % 0 lf 985,7 hPa 0,0 l/m 0 min 0 min 0 W/m 27,0 km/h (4 Bft) 97,87 %
27.12.2017 04:52 5,2 C 5,6 C 3,9 C 86 % 0 lf 985,7 hPa 0,0 l/m 0 min 0 min 0 W/m 24,8 km/h (4 Bft) 97,87 %
27.12.2017 04:54 5,2 C 5,6 C 3,9 C 86 % 0 lf 985,7 hPa 0,0 l/m 0 min 0 min 0 W/m 24,8 km/h (4 Bft) 97,83 %
27.12.2017 04:56 5,3 C 5,6 C 3,9 C 86 % 0 lf 985,7 hPa 0,0 l/m 0 min 0 min 0 W/m 31,5 km/h (5 Bft) 97,87 %
27.12.2017 04:58 5,3 C 5,6 C 3,9 C 86 % 0 lf 985,7 hPa 0,0 l/m 0 min 0 min 0 W/m 18,0 km/h (3 Bft) 95,74 %
27.12.2017 05:00 5,3 C 5,6 C 3,9 C 86 % 0 lf 985,7 hPa 0,0 l/m 0 min 0 min 0 W/m 24,8 km/h (4 Bft) 97,87 %
27.12.2017 05:02 5,3 C 5,6 C 3,9 C 86 % 0 lf 985,7 hPa 0,0 l/m 0 min 0 min 0 W/m 24,8 km/h (4 Bft) 93,62 %
27.12.2017 05:04 5,3 C 5,6 C 3,9 C 85 % 0 lf 985,5 hPa 0,0 l/m 0 min 0 min 0 W/m 29,3 km/h (5 Bft) 95,74 %
27.12.2017 05:06 5,4 C 5,6 C 3,9 C 85 % 0 lf 985,5 hPa 0,0 l/m 0 min 0 min 0 W/m 20,3 km/h (4 Bft) 93,48 %
27.12.2017 05:08 5,4 C 5,6 C 3,9 C 85 % 0 lf 985,4 hPa 0,0 l/m 0 min 0 min 0 W/m 20,3 km/h (4 Bft) 95,74 %
27.12.2017 05:10 5,4 C 5,6 C 4,4 C 85 % 0 lf 985,4 hPa 0,0 l/m 0 min 0 min 0 W/m 29,3 km/h (5 Bft) 95,74 %
27.12.2017 05:12 5,4 C 5,6 C 4,4 C 85 % 0 lf 985,3 hPa 0,0 l/m 0 min 0 min 0 W/m 31,5 km/h (5 Bft) 93,62 %
27.12.2017 05:14 5,5 C 6,1 C 4,4 C 85 % 0 lf 985,2 hPa 0,0 l/m 0 min 0 min 0 W/m 20,3 km/h (4 Bft) 93,62 %
27.12.2017 05:16 5,6 C 6,1 C 4,4 C 84 % 0 lf 985,1 hPa 0,0 l/m 0 min 0 min 0 W/m 36,0 km/h (5 Bft) 97,83 %
27.12.2017 05:18 5,6 C 6,1 C 4,4 C 84 % 0 lf 985,1 hPa 0,0 l/m 0 min 0 min 0 W/m 29,3 km/h (5 Bft) 97,87 %
27.12.2017 05:20 5,7 C 6,1 C 4,4 C 84 % 0 lf 985,0 hPa 0,0 l/m 0 min 0 min 0 W/m 40,6 km/h (6 Bft) 95,74 %
27.12.2017 05:22 5,7 C 6,1 C 4,4 C 83 % 0 lf 985,0 hPa 0,0 l/m 0 min 0 min 0 W/m 31,5 km/h (5 Bft) 97,87 %
27.12.2017 05:24 5,8 C 6,1 C 4,4 C 83 % 0 lf 984,9 hPa 0,0 l/m 0 min 0 min 0 W/m 36,0 km/h (5 Bft) 97,87 %
27.12.2017 05:26 5,9 C 6,1 C 5,0 C 82 % 0 lf 984,9 hPa 0,0 l/m 0 min 0 min 0 W/m 33,8 km/h (5 Bft) 95,74 %
27.12.2017 05:28 5,9 C 6,1 C 5,0 C 82 % 0 lf 984,9 hPa 0,0 l/m 0 min 0 min 0 W/m 29,3 km/h (5 Bft) 97,83 %
27.12.2017 05:30 6,0 C 6,1 C 5,0 C 82 % 0 lf 984,8 hPa 0,0 l/m 0 min 0 min 0 W/m 40,6 km/h (6 Bft) 95,74 %
27.12.2017 05:32 6,1 C 6,1 C 5,0 C 81 % 0 lf 984,8 hPa 0,0 l/m 0 min 0 min 0 W/m 27,0 km/h (4 Bft) 91,49 %
27.12.2017 05:34 6,1 C 6,1 C 4,4 C 81 % 0 lf 984,8 hPa 0,0 l/m 0 min 0 min 0 W/m 27,0 km/h (4 Bft) 97,87 %
27.12.2017 05:35 6,1 C 6,1 C 4,4 C 81 % 0 lf 984,7 hPa 0,0 l/m 0 min 0 min 0 W/m 29,3 km/h (5 Bft) 98,25 %
27.12.2017 05:40 6,1 C 6,1 C 4,4 C 81 % 0 lf 984,7 hPa 0,0 l/m 0 min 0 min 0 W/m 20,3 km/h (4 Bft) 86,96 %
27.12.2017 05:42 6,1 C 6,1 C 4,4 C 81 % 0 lf 984,6 hPa 0,0 l/m 0 min 0 min 0 W/m 47,3 km/h (6 Bft) 94,92 %
27.12.2017 05:44 6,1 C 6,1 C 4,4 C 81 % 0 lf 984,5 hPa 0,0 l/m 0 min 0 min 0 W/m 29,3 km/h (5 Bft) 94,29 %
27.12.2017 05:46 6,1 C 6,1 C 4,4 C 81 % 0 lf 984,6 hPa 0,0 l/m 0 min 0 min 0 W/m 40,6 km/h (6 Bft) 96,23 %
27.12.2017 05:48 6,1 C 6,1 C 5,0 C 81 % 0 lf 984,5 hPa 0,0 l/m 0 min 0 min 0 W/m 33,8 km/h (5 Bft) 97,87 %
27.12.2017 05:50 6,1 C 6,1 C 5,0 C 81 % 0 lf 984,5 hPa 0,0 l/m 0 min 0 min 0 W/m 36,0 km/h (5 Bft) 97,87 %
27.12.2017 05:52 6,2 C 6,1 C 5,0 C 80 % 0 lf 984,5 hPa 0,0 l/m 0 min 0 min 0 W/m 33,8 km/h (5 Bft) 97,87 %
27.12.2017 05:54 6,2 C 6,1 C 5,0 C 80 % 0 lf 984,4 hPa 0,0 l/m 0 min 0 min 0 W/m 29,3 km/h (5 Bft) 94,00 %
27.12.2017 05:56 6,2 C 6,1 C 5,0 C 80 % 0 lf 984,4 hPa 0,0 l/m 0 min 0 min 0 W/m 33,8 km/h (5 Bft) 91,84 %
27.12.2017 05:58 6,2 C 6,1 C 5,0 C 80 % 0 lf 984,4 hPa 0,0 l/m 0 min 0 min 0 W/m 33,8 km/h (5 Bft) 97,14 %
27.12.2017 06:00 6,2 C 6,1 C 5,0 C 80 % 0 lf 984,3 hPa 0,0 l/m 0 min 0 min 0 W/m 36,0 km/h (5 Bft) 95,74 %
27.12.2017 06:02 6,2 C 6,1 C 5,0 C 80 % 0 lf 984,3 hPa 0,0 l/m 0 min 0 min 0 W/m 38,3 km/h (5 Bft) 96,23 %
27.12.2017 06:04 6,2 C 6,1 C 5,0 C 80 % 0 lf 984,3 hPa 0,0 l/m 0 min 2 min 0 W/m 33,8 km/h (5 Bft) 89,36 %
27.12.2017 06:06 6,3 C 6,1 C 4,4 C 80 % 0 lf 984,2 hPa 0,0 l/m 0 min 2 min 0 W/m 33,8 km/h (5 Bft) 95,74 %
27.12.2017 06:10 6,2 C 6,1 C 4,4 C 80 % 0 lf 984,2 hPa 0,0 l/m 0 min 4 min 0 W/m 33,8 km/h (5 Bft) 95,92 %
27.12.2017 06:12 6,2 C 6,1 C 4,4 C 80 % 0 lf 984,1 hPa 0,0 l/m 0 min 0 min 0 W/m 31,5 km/h (5 Bft) 94,44 %
27.12.2017 06:14 6,2 C 6,1 C 4,4 C 80 % 0 lf 984,0 hPa 0,0 l/m 0 min 0 min 0 W/m 29,3 km/h (5 Bft) 95,65 %
27.12.2017 06:16 6,2 C 6,1 C 4,4 C 80 % 0 lf 984,1 hPa 0,0 l/m 0 min 0 min 0 W/m 27,0 km/h (4 Bft) 96,43 %
27.12.2017 06:18 6,2 C 6,1 C 4,4 C 80 % 0 lf 983,9 hPa 0,0 l/m 0 min 0 min 0 W/m 29,3 km/h (5 Bft) 93,88 %
27.12.2017 06:20 6,2 C 6,1 C 4,4 C 80 % 0 lf 983,9 hPa 0,0 l/m 0 min 0 min 0 W/m 31,5 km/h (5 Bft) 87,50 %
27.12.2017 06:22 6,2 C 6,1 C 4,4 C 80 % 0 lf 983,8 hPa 0,0 l/m 0 min 0 min 0 W/m 22,5 km/h (4 Bft) 93,22 %
27.12.2017 06:24 6,1 C 6,1 C 4,4 C 80 % 0 lf 983,8 hPa 0,0 l/m 0 min 0 min 0 W/m 36,0 km/h (5 Bft) 95,74 %
27.12.2017 06:26 6,1 C 6,1 C 4,4 C 80 % 0 lf 983,8 hPa 0,0 l/m 0 min 0 min 0 W/m 38,3 km/h (5 Bft) 95,65 %
27.12.2017 06:28 6,1 C 6,1 C 4,4 C 80 % 0 lf 983,8 hPa 0,0 l/m 0 min 0 min 0 W/m 29,3 km/h (5 Bft) 97,87 %
27.12.2017 06:30 6,1 C 6,1 C 4,4 C 80 % 0 lf 983,8 hPa 0,0 l/m 0 min 0 min 0 W/m 27,0 km/h (4 Bft) 98,21 %
27.12.2017 06:32 6,1 C 6,1 C 4,4 C 80 % 0 lf 983,8 hPa 0,0 l/m 0 min 0 min 0 W/m 27,0 km/h (4 Bft) 95,65 %
27.12.2017 06:34 6,1 C 6,1 C 4,4 C 81 % 0 lf 983,8 hPa 0,0 l/m 0 min 0 min 0 W/m 27,0 km/h (4 Bft) 94,00 %
27.12.2017 06:36 6,1 C 6,1 C 4,4 C 81 % 0 lf 983,7 hPa 0,0 l/m 0 min 0 min 0 W/m 29,3 km/h (5 Bft) 100,00 %
27.12.2017 06:38 6,1 C 6,1 C 4,4 C 81 % 0 lf 983,7 hPa 0,0 l/m 0 min 2 min 0 W/m 31,5 km/h (5 Bft) 93,62 %
27.12.2017 06:40 6,1 C 6,1 C 4,4 C 81 % 0 lf 983,7 hPa 0,0 l/m 0 min 0 min 0 W/m 36,0 km/h (5 Bft) 98,21 %
27.12.2017 06:42 6,1 C 6,1 C 4,4 C 81 % 0 lf 983,6 hPa 0,0 l/m 0 min 0 min 0 W/m 33,8 km/h (5 Bft) 100,00 %
27.12.2017 06:44 6,1 C 6,1 C 4,4 C 81 % 0 lf 983,6 hPa 0,0 l/m 0 min 0 min 0 W/m 24,8 km/h (4 Bft) 100,00 %
27.12.2017 06:46 6,1 C 6,1 C 4,4 C 81 % 0 lf 983,6 hPa 0,0 l/m 0 min 0 min 0 W/m 22,5 km/h (4 Bft) 100,00 %
27.12.2017 06:48 6,1 C 5,6 C 4,4 C 81 % 0 lf 983,5 hPa 0,0 l/m 0 min 0 min 0 W/m 27,0 km/h (4 Bft) 100,00 %
27.12.2017 06:50 6,1 C 5,6 C 4,4 C 81 % 0 lf 983,5 hPa 0,0 l/m 0 min 2 min 0 W/m 24,8 km/h (4 Bft) 98,21 %
27.12.2017 06:52 6,1 C 5,6 C 4,4 C 81 % 0 lf 983,6 hPa 0,0 l/m 0 min 0 min 0 W/m 31,5 km/h (5 Bft) 100,00 %
27.12.2017 06:54 6,0 C 5,6 C 4,4 C 81 % 0 lf 983,6 hPa 0,0 l/m 0 min 0 min 0 W/m 33,8 km/h (5 Bft) 100,00 %
27.12.2017 06:56 6,0 C 5,6 C 4,4 C 82 % 0 lf 983,6 hPa 0,0 l/m 0 min 2 min 0 W/m 29,3 km/h (5 Bft) 100,00 %
27.12.2017 06:58 6,0 C 5,6 C 4,4 C 82 % 0 lf 983,5 hPa 0,0 l/m 0 min 2 min 0 W/m 27,0 km/h (4 Bft) 100,00 %
27.12.2017 07:00 6,0 C 5,6 C 4,4 C 82 % 0 lf 983,5 hPa 0,0 l/m 0 min 2 min 0 W/m 29,3 km/h (5 Bft) 97,14 %
27.12.2017 07:02 6,0 C 5,6 C 4,4 C 82 % 0 lf 983,5 hPa 0,0 l/m 0 min 2 min 0 W/m 31,5 km/h (5 Bft) 100,00 %
27.12.2017 07:04 6,0 C 5,6 C 3,9 C 82 % 1 lf 983,5 hPa 0,0 l/m 0 min 2 min 0 W/m 22,5 km/h (4 Bft) 100,00 %
27.12.2017 07:06 6,0 C 5,0 C 3,9 C 82 % 1 lf 983,5 hPa 0,0 l/m 0 min 2 min 0 W/m 29,3 km/h (5 Bft) 97,83 %
27.12.2017 07:08 6,0 C 5,0 C 3,9 C 83 % 1 lf 983,5 hPa 0,0 l/m 0 min 2 min 0 W/m 29,3 km/h (5 Bft) 100,00 %
27.12.2017 07:10 6,0 C 5,0 C 3,9 C 83 % 0 lf 983,5 hPa 0,0 l/m 0 min 2 min 0 W/m 27,0 km/h (4 Bft) 100,00 %
27.12.2017 07:12 6,0 C 5,0 C 3,3 C 83 % 0 lf 983,5 hPa 0,0 l/m 0 min 2 min 0 W/m 29,3 km/h (5 Bft) 100,00 %
27.12.2017 07:14 5,9 C 5,0 C 3,3 C 84 % 0 lf 983,5 hPa 0,0 l/m 0 min 2 min 0 W/m 36,0 km/h (5 Bft) 100,00 %
27.12.2017 07:16 5,9 C 5,0 C 3,3 C 84 % 1 lf 983,5 hPa 0,0 l/m 0 min 2 min 0 W/m 31,5 km/h (5 Bft) 100,00 %
27.12.2017 07:18 5,9 C 5,0 C 3,3 C 84 % 0 lf 983,5 hPa 0,0 l/m 0 min 2 min 0 W/m 31,5 km/h (5 Bft) 95,65 %
27.12.2017 07:20 5,9 C 5,0 C 3,3 C 85 % 0 lf 983,5 hPa 0,0 l/m 0 min 2 min 0 W/m 31,5 km/h (5 Bft) 100,00 %
27.12.2017 07:22 5,9 C 4,4 C 3,3 C 85 % 1 lf 983,5 hPa 0,0 l/m 0 min 2 min 0 W/m 24,8 km/h (4 Bft) 100,00 %
27.12.2017 07:24 5,8 C 4,4 C 3,3 C 85 % 0 lf 983,4 hPa 0,0 l/m 0 min 2 min 0 W/m 33,8 km/h (5 Bft) 100,00 %
27.12.2017 07:26 5,8 C 4,4 C 3,3 C 85 % 0 lf 983,5 hPa 0,0 l/m 0 min 2 min 0 W/m 31,5 km/h (5 Bft) 100,00 %
27.12.2017 07:28 5,8 C 4,4 C 3,3 C 86 % 0 lf 983,4 hPa 0,0 l/m 0 min 2 min 0 W/m 33,8 km/h (5 Bft) 100,00 %
27.12.2017 07:30 5,7 C 4,4 C 3,3 C 86 % 0 lf 983,3 hPa 0,0 l/m 0 min 2 min 0 W/m 36,0 km/h (5 Bft) 100,00 %
27.12.2017 07:32 5,7 C 4,4 C 3,3 C 86 % 1 lf 983,3 hPa 0,0 l/m 0 min 2 min 0 W/m 27,0 km/h (4 Bft) 100,00 %
27.12.2017 07:34 5,7 C 4,4 C 3,3 C 86 % 1 lf 983,3 hPa 0,0 l/m 0 min 2 min 0 W/m 33,8 km/h (5 Bft) 100,00 %
27.12.2017 07:36 5,6 C 4,4 C 3,3 C 87 % 0 lf 983,3 hPa 0,0 l/m 0 min 2 min 0 W/m 33,8 km/h (5 Bft) 95,74 %
27.12.2017 07:38 5,6 C 4,4 C 3,3 C 87 % 1 lf 983,4 hPa 0,0 l/m 0 min 2 min 0 W/m 29,3 km/h (5 Bft) 97,87 %
27.12.2017 07:40 5,6 C 4,4 C 3,3 C 87 % 1 lf 983,3 hPa 0,0 l/m 0 min 2 min 0 W/m 27,0 km/h (4 Bft) 100,00 %
27.12.2017 07:42 5,6 C 4,4 C 3,3 C 87 % 2 lf 983,3 hPa 0,0 l/m 0 min 2 min 0 W/m 31,5 km/h (5 Bft) 95,65 %
27.12.2017 07:44 5,5 C 3,9 C 3,3 C 88 % 2 lf 983,3 hPa 0,0 l/m 0 min 2 min 0 W/m 24,8 km/h (4 Bft) 95,74 %
27.12.2017 07:46 5,5 C 3,9 C 3,3 C 88 % 1 lf 983,3 hPa 0,0 l/m 0 min 2 min 0 W/m 29,3 km/h (5 Bft) 95,74 %
27.12.2017 07:48 5,4 C 3,9 C 3,3 C 88 % 1 lf 983,2 hPa 0,0 l/m 0 min 2 min 0 W/m 24,8 km/h (4 Bft) 93,62 %
27.12.2017 07:50 5,4 C 3,9 C 3,3 C 88 % 1 lf 983,2 hPa 0,0 l/m 0 min 2 min 0 W/m 29,3 km/h (5 Bft) 95,74 %
27.12.2017 07:52 5,4 C 3,9 C 3,3 C 88 % 0 lf 983,1 hPa 0,0 l/m 0 min 2 min 0 W/m 29,3 km/h (5 Bft) 95,65 %
27.12.2017 07:54 5,4 C 3,9 C 3,3 C 89 % 1 lf 983,1 hPa 0,0 l/m 0 min 2 min 0 W/m 27,0 km/h (4 Bft) 95,74 %
27.12.2017 07:56 5,3 C 3,9 C 3,3 C 89 % 0 lf 983,1 hPa 0,2 l/m 0 min 2 min 0 W/m 22,5 km/h (4 Bft) 95,74 %
27.12.2017 07:58 5,3 C 3,9 C 3,3 C 89 % 1 lf 983,1 hPa 0,0 l/m 0 min 2 min 0 W/m 27,0 km/h (4 Bft) 95,74 %
27.12.2017 08:00 5,3 C 3,9 C 3,3 C 89 % 1 lf 983,1 hPa 0,0 l/m 0 min 2 min 0 W/m 27,0 km/h (4 Bft) 93,62 %
27.12.2017 08:02 5,3 C 3,9 C 3,3 C 89 % 1 lf 983,1 hPa 0,0 l/m 0 min 2 min 0 W/m 31,5 km/h (5 Bft) 91,49 %
27.12.2017 08:04 5,2 C 3,9 C 3,3 C 89 % 2 lf 983,1 hPa 0,0 l/m 0 min 2 min 0 W/m 29,3 km/h (5 Bft) 91,30 %
27.12.2017 08:06 5,2 C 3,9 C 3,3 C 90 % 1 lf 983,1 hPa 0,0 l/m 0 min 2 min 0 W/m 33,8 km/h (5 Bft) 89,36 %
27.12.2017 08:08 5,2 C 3,9 C 3,3 C 90 % 3 lf 983,1 hPa 0,0 l/m 0 min 2 min 0 W/m 24,8 km/h (4 Bft) 93,62 %
27.12.2017 08:10 5,2 C 3,9 C 3,3 C 90 % 2 lf 983,1 hPa 0,0 l/m 0 min 2 min 0 W/m 29,3 km/h (5 Bft) 93,62 %
27.12.2017 08:12 5,2 C 3,9 C 3,3 C 90 % 2 lf 983,1 hPa 0,0 l/m 0 min 2 min 0 W/m 27,0 km/h (4 Bft) 93,62 %
27.12.2017 08:14 5,2 C 3,9 C 3,3 C 90 % 2 lf 983,0 hPa 0,2 l/m 0 min 2 min 0 W/m 27,0 km/h (4 Bft) 91,49 %
27.12.2017 08:16 5,2 C 3,9 C 3,3 C 90 % 1 lf 983,1 hPa 0,0 l/m 0 min 2 min 0 W/m 33,8 km/h (5 Bft) 93,48 %
27.12.2017 08:18 5,1 C 3,9 C 3,3 C 91 % 1 lf 983,1 hPa 0,0 l/m 0 min 2 min 0 W/m 24,8 km/h (4 Bft) 93,62 %
27.12.2017 08:20 5,1 C 3,9 C 3,3 C 91 % 1 lf 983,0 hPa 0,0 l/m 0 min 2 min 0 W/m 31,5 km/h (5 Bft) 93,62 %
27.12.2017 08:22 5,1 C 3,9 C 3,3 C 91 % 2 lf 983,0 hPa 0,0 l/m 0 min 2 min 0 W/m 27,0 km/h (4 Bft) 95,74 %
27.12.2017 08:24 5,1 C 3,9 C 3,3 C 91 % 1 lf 983,0 hPa 0,0 l/m 0 min 2 min 0 W/m 24,8 km/h (4 Bft) 93,62 %
27.12.2017 08:26 5,1 C 3,9 C 3,3 C 91 % 4 lf 983,1 hPa 0,0 l/m 0 min 2 min 0 W/m 29,3 km/h (5 Bft) 91,49 %
27.12.2017 08:28 5,1 C 3,9 C 3,3 C 91 % 4 lf 983,1 hPa 0,0 l/m 0 min 2 min 0 W/m 22,5 km/h (4 Bft) 91,30 %
27.12.2017 08:30 5,1 C 3,9 C 3,3 C 91 % 3 lf 983,1 hPa 0,2 l/m 0 min 2 min 0 W/m 20,3 km/h (4 Bft) 91,49 %
27.12.2017 08:32 5,0 C 3,9 C 3,3 C 91 % 4 lf 983,1 hPa 0,0 l/m 0 min 2 min 0 W/m 22,5 km/h (4 Bft) 91,84 %
27.12.2017 08:34 5,0 C 3,9 C 3,3 C 92 % 4 lf 983,0 hPa 0,0 l/m 0 min 2 min 0 W/m 24,8 km/h (4 Bft) 93,62 %
27.12.2017 08:36 5,0 C 3,9 C 3,3 C 92 % 3 lf 983,0 hPa 0,0 l/m 0 min 2 min 0 W/m 24,8 km/h (4 Bft) 93,62 %
27.12.2017 08:38 5,0 C 3,9 C 3,3 C 92 % 3 lf 983,0 hPa 0,0 l/m 0 min 2 min 0 W/m 29,3 km/h (5 Bft) 93,62 %
27.12.2017 08:40 4,9 C 3,9 C 3,3 C 92 % 3 lf 983,0 hPa 0,0 l/m 0 min 2 min 0 W/m 24,8 km/h (4 Bft) 91,49 %
27.12.2017 08:42 4,9 C 3,9 C 3,3 C 92 % 3 lf 983,0 hPa 0,0 l/m 0 min 2 min 0 W/m 20,3 km/h (4 Bft) 93,48 %
27.12.2017 08:44 4,9 C 3,9 C 3,3 C 92 % 3 lf 983,0 hPa 0,0 l/m 0 min 2 min 0 W/m 27,0 km/h (4 Bft) 95,74 %
27.12.2017 08:46 4,9 C 3,9 C 3,3 C 92 % 3 lf 983,0 hPa 0,2 l/m 0 min 2 min 0 W/m 24,8 km/h (4 Bft) 91,49 %
27.12.2017 08:48 4,9 C 3,9 C 3,3 C 92 % 3 lf 983,0 hPa 0,0 l/m 0 min 2 min 0 W/m 27,0 km/h (4 Bft) 93,62 %
27.12.2017 08:50 4,9 C 3,9 C 3,3 C 92 % 4 lf 983,0 hPa 0,0 l/m 0 min 2 min 0 W/m 29,3 km/h (5 Bft) 95,74 %
27.12.2017 08:52 4,9 C 3,9 C 3,3 C 93 % 4 lf 983,0 hPa 0,0 l/m 0 min 2 min 0 W/m 24,8 km/h (4 Bft) 93,62 %
27.12.2017 08:54 4,9 C 3,9 C 3,3 C 93 % 5 lf 983,0 hPa 0,0 l/m 0 min 2 min 2 W/m 22,5 km/h (4 Bft) 91,30 %
27.12.2017 08:56 4,8 C 3,9 C 3,3 C 93 % 5 lf 982,9 hPa 0,2 l/m 0 min 2 min 5 W/m 27,0 km/h (4 Bft) 93,62 %
27.12.2017 08:58 4,8 C 3,9 C 3,3 C 93 % 4 lf 983,0 hPa 0,0 l/m 0 min 2 min 5 W/m 24,8 km/h (4 Bft) 93,62 %
27.12.2017 09:00 4,8 C 3,9 C 3,3 C 93 % 5 lf 983,0 hPa 0,0 l/m 0 min 2 min 7 W/m 29,3 km/h (5 Bft) 95,74 %
27.12.2017 09:02 4,8 C 3,9 C 3,3 C 93 % 5 lf 982,9 hPa 0,0 l/m 0 min 2 min 7 W/m 20,3 km/h (4 Bft) 95,74 %
27.12.2017 09:04 4,8 C 3,9 C 3,3 C 93 % 5 lf 982,9 hPa 0,0 l/m 0 min 2 min 9 W/m 22,5 km/h (4 Bft) 95,74 %
27.12.2017 09:06 4,8 C 3,9 C 3,3 C 93 % 4 lf 982,8 hPa 0,0 l/m 0 min 2 min 10 W/m 18,0 km/h (3 Bft) 95,65 %
27.12.2017 09:08 4,8 C 3,9 C 3,3 C 93 % 5 lf 982,8 hPa 0,0 l/m 0 min 2 min 11 W/m 24,8 km/h (4 Bft) 95,74 %
27.12.2017 09:10 4,8 C 3,9 C 3,3 C 93 % 5 lf 982,8 hPa 0,0 l/m 0 min 2 min 11 W/m 33,8 km/h (5 Bft) 91,49 %
27.12.2017 09:12 4,7 C 3,9 C 3,3 C 93 % 4 lf 982,8 hPa 0,0 l/m 0 min 2 min 11 W/m 22,5 km/h (4 Bft) 89,36 %
27.12.2017 09:14 4,7 C 3,9 C 3,3 C 93 % 4 lf 982,8 hPa 0,2 l/m 0 min 2 min 11 W/m 20,3 km/h (4 Bft) 95,74 %
27.12.2017 09:16 4,7 C 3,9 C 3,3 C 94 % 4 lf 982,7 hPa 0,0 l/m 0 min 2 min 11 W/m 20,3 km/h (4 Bft) 95,74 %
27.12.2017 09:18 4,7 C 3,9 C 3,3 C 94 % 4 lf 982,8 hPa 0,0 l/m 0 min 2 min 11 W/m 24,8 km/h (4 Bft) 100,00 %
27.12.2017 09:20 4,7 C 3,9 C 3,3 C 94 % 4 lf 982,8 hPa 0,0 l/m 0 min 2 min 11 W/m 22,5 km/h (4 Bft) 97,87 %
27.12.2017 09:22 4,7 C 3,9 C 3,3 C 94 % 4 lf 982,8 hPa 0,0 l/m 0 min 2 min 12 W/m 24,8 km/h (4 Bft) 100,00 %
27.12.2017 09:24 4,7 C 3,9 C 3,3 C 94 % 9 lf 982,8 hPa 0,0 l/m 0 min 2 min 13 W/m 22,5 km/h (4 Bft) 100,00 %
27.12.2017 09:26 4,7 C 3,9 C 3,3 C 94 % 10 lf 982,8 hPa 0,0 l/m 0 min 2 min 15 W/m 20,3 km/h (4 Bft) 97,87 %
27.12.2017 09:28 4,7 C 3,9 C 3,3 C 94 % 11 lf 982,8 hPa 0,0 l/m 0 min 2 min 17 W/m 18,0 km/h (3 Bft) 89,36 %
27.12.2017 09:30 4,7 C 3,9 C 3,3 C 94 % 11 lf 982,8 hPa 0,2 l/m 0 min 2 min 18 W/m 36,0 km/h (5 Bft) 97,83 %
27.12.2017 09:32 4,7 C 3,9 C 3,3 C 94 % 11 lf 982,7 hPa 0,0 l/m 0 min 2 min 18 W/m 20,3 km/h (4 Bft) 97,87 %
27.12.2017 09:34 4,7 C 3,9 C 3,3 C 94 % 11 lf 982,7 hPa 0,0 l/m 0 min 2 min 18 W/m 24,8 km/h (4 Bft) 100,00 %
27.12.2017 09:36 4,7 C 3,9 C 3,3 C 94 % 11 lf 982,8 hPa 0,0 l/m 0 min 2 min 18 W/m 27,0 km/h (4 Bft) 100,00 %
27.12.2017 09:38 4,7 C 3,9 C 3,3 C 94 % 10 lf 982,8 hPa 0,0 l/m 0 min 2 min 19 W/m 18,0 km/h (3 Bft) 95,74 %
27.12.2017 09:40 4,7 C 3,9 C 3,3 C 94 % 10 lf 982,7 hPa 0,0 l/m 0 min 2 min 20 W/m 27,0 km/h (4 Bft) 95,65 %
27.12.2017 09:42 4,7 C 3,9 C 3,3 C 94 % 10 lf 982,8 hPa 0,0 l/m 0 min 2 min 21 W/m 18,0 km/h (3 Bft) 97,87 %
27.12.2017 09:44 4,7 C 3,9 C 3,3 C 94 % 9 lf 982,8 hPa 0,0 l/m 0 min 2 min 21 W/m 22,5 km/h (4 Bft) 97,87 %
27.12.2017 09:46 4,7 C 3,9 C 3,3 C 94 % 8 lf 982,7 hPa 0,0 l/m 0 min 2 min 21 W/m 24,8 km/h (4 Bft) 97,87 %
27.12.2017 09:48 4,7 C 3,9 C 3,3 C 94 % 8 lf 982,7 hPa 0,2 l/m 0 min 2 min 21 W/m 27,0 km/h (4 Bft) 97,87 %
27.12.2017 09:50 4,7 C 3,9 C 3,3 C 94 % 7 lf 982,7 hPa 0,0 l/m 0 min 2 min 19 W/m 27,0 km/h (4 Bft) 93,62 %
27.12.2017 09:52 4,7 C 3,9 C 3,3 C 94 % 6 lf 982,8 hPa 0,0 l/m 0 min 2 min 19 W/m 27,0 km/h (4 Bft) 95,65 %
27.12.2017 09:54 4,7 C 3,9 C 3,3 C 94 % 6 lf 982,8 hPa 0,0 l/m 0 min 2 min 19 W/m 22,5 km/h (4 Bft) 97,87 %
27.12.2017 09:56 4,7 C 3,9 C 3,3 C 95 % 5 lf 982,8 hPa 0,0 l/m 0 min 2 min 19 W/m 20,3 km/h (4 Bft) 95,74 %
27.12.2017 09:58 4,7 C 3,9 C 3,3 C 95 % 5 lf 982,8 hPa 0,0 l/m 0 min 2 min 18 W/m 22,5 km/h (4 Bft) 93,62 %
27.12.2017 10:00 4,7 C 3,9 C 3,3 C 95 % 5 lf 982,8 hPa 0,0 l/m 0 min 2 min 19 W/m 22,5 km/h (4 Bft) 95,74 %
27.12.2017 10:02 4,7 C 3,9 C 3,3 C 95 % 5 lf 982,8 hPa 0,0 l/m 0 min 2 min 20 W/m 29,3 km/h (5 Bft) 95,74 %
27.12.2017 10:04 4,7 C 3,9 C 3,3 C 95 % 4 lf 982,8 hPa 0,0 l/m 0 min 2 min 23 W/m 18,0 km/h (3 Bft) 100,00 %
27.12.2017 10:06 4,7 C 3,9 C 3,3 C 95 % 4 lf 982,7 hPa 0,2 l/m 0 min 2 min 25 W/m 27,0 km/h (4 Bft) 97,87 %
27.12.2017 10:08 4,7 C 3,9 C 3,3 C 95 % 7 lf 982,7 hPa 0,0 l/m 0 min 2 min 25 W/m 31,5 km/h (5 Bft) 91,49 %
27.12.2017 10:10 4,7 C 3,9 C 3,3 C 95 % 8 lf 982,8 hPa 0,0 l/m 0 min 2 min 27 W/m 24,8 km/h (4 Bft) 100,00 %
27.12.2017 10:12 4,7 C 3,9 C 3,3 C 95 % 9 lf 982,8 hPa 0,0 l/m 0 min 2 min 31 W/m 27,0 km/h (4 Bft) 100,00 %
27.12.2017 10:14 4,7 C 3,9 C 3,3 C 95 % 9 lf 982,7 hPa 0,0 l/m 0 min 2 min 33 W/m 18,0 km/h (3 Bft) 100,00 %
27.12.2017 10:16 4,7 C 3,9 C 3,3 C 95 % 10 lf 982,7 hPa 0,2 l/m 0 min 2 min 34 W/m 20,3 km/h (4 Bft) 95,65 %
27.12.2017 10:18 4,7 C 3,9 C 3,3 C 95 % 9 lf 982,7 hPa 0,0 l/m 0 min 2 min 35 W/m 22,5 km/h (4 Bft) 97,87 %
27.12.2017 10:20 4,7 C 3,9 C 3,3 C 95 % 9 lf 982,7 hPa 0,0 l/m 0 min 2 min 33 W/m 24,8 km/h (4 Bft) 100,00 %
27.12.2017 10:22 4,7 C 3,9 C 3,3 C 95 % 9 lf 982,8 hPa 0,0 l/m 0 min 2 min 32 W/m 29,3 km/h (5 Bft) 95,74 %
27.12.2017 10:24 4,7 C 3,9 C 3,3 C 95 % 8 lf 982,7 hPa 0,0 l/m 0 min 2 min 32 W/m 27,0 km/h (4 Bft) 97,87 %
27.12.2017 10:26 4,7 C 3,9 C 3,3 C 95 % 7 lf 982,8 hPa 0,0 l/m 0 min 2 min 29 W/m 18,0 km/h (3 Bft) 100,00 %
27.12.2017 10:28 4,7 C 3,9 C 3,3 C 95 % 7 lf 982,8 hPa 0,0 l/m 0 min 2 min 26 W/m 22,5 km/h (4 Bft) 100,00 %
27.12.2017 10:30 4,7 C 3,9 C 3,3 C 95 % 7 lf 982,9 hPa 0,0 l/m 0 min 2 min 26 W/m 24,8 km/h (4 Bft) 100,00 %
27.12.2017 10:32 4,7 C 3,9 C 3,3 C 95 % 6 lf 982,9 hPa 0,0 l/m 0 min 2 min 25 W/m 22,5 km/h (4 Bft) 95,74 %
27.12.2017 10:34 4,7 C 3,9 C 3,3 C 95 % 6 lf 982,9 hPa 0,0 l/m 0 min 2 min 24 W/m 22,5 km/h (4 Bft) 97,87 %
27.12.2017 10:36 4,7 C 3,9 C 3,3 C 95 % 6 lf 982,9 hPa 0,0 l/m 0 min 2 min 22 W/m 24,8 km/h (4 Bft) 97,87 %
27.12.2017 10:38 4,7 C 3,9 C 3,3 C 95 % 5 lf 982,9 hPa 0,2 l/m 0 min 2 min 21 W/m 27,0 km/h (4 Bft) 97,87 %
27.12.2017 10:40 4,7 C 3,9 C 3,3 C 95 % 5 lf 983,0 hPa 0,0 l/m 0 min 2 min 21 W/m 22,5 km/h (4 Bft) 97,83 %
27.12.2017 10:42 4,7 C 3,9 C 3,3 C 95 % 4 lf 983,0 hPa 0,0 l/m 0 min 2 min 21 W/m 33,8 km/h (5 Bft) 97,87 %
27.12.2017 10:44 4,7 C 3,9 C 3,3 C 95 % 9 lf 983,0 hPa 0,0 l/m 0 min 2 min 22 W/m 20,3 km/h (4 Bft) 100,00 %
27.12.2017 10:46 4,7 C 3,9 C 3,3 C 95 % 9 lf 983,1 hPa 0,0 l/m 0 min 2 min 21 W/m 27,0 km/h (4 Bft) 97,87 %
27.12.2017 10:48 4,8 C 3,9 C 3,3 C 95 % 10 lf 983,1 hPa 0,2 l/m 0 min 2 min 21 W/m 18,0 km/h (3 Bft) 97,87 %
27.12.2017 10:50 4,8 C 3,9 C 3,3 C 95 % 10 lf 983,1 hPa 0,0 l/m 0 min 2 min 21 W/m 18,0 km/h (3 Bft) 97,83 %
27.12.2017 10:52 4,8 C 3,9 C 3,3 C 95 % 10 lf 983,1 hPa 0,0 l/m 0 min 2 min 21 W/m 22,5 km/h (4 Bft) 95,74 %
27.12.2017 10:54 4,8 C 3,9 C 3,3 C 95 % 10 lf 983,0 hPa 0,0 l/m 0 min 2 min 21 W/m 24,8 km/h (4 Bft) 95,74 %
27.12.2017 10:56 4,8 C 3,9 C 3,3 C 95 % 10 lf 983,1 hPa 0,0 l/m 0 min 2 min 23 W/m 27,0 km/h (4 Bft) 97,87 %
27.12.2017 10:58 4,8 C 4,4 C 3,3 C 95 % 10 lf 983,0 hPa 0,2 l/m 0 min 2 min 25 W/m 13,5 km/h (3 Bft) 95,74 %
27.12.2017 11:00 4,8 C 4,4 C 3,3 C 95 % 10 lf 983,0 hPa 0,0 l/m 0 min 2 min 26 W/m 27,0 km/h (4 Bft) 97,87 %
27.12.2017 11:02 4,8 C 3,9 C 3,3 C 95 % 10 lf 983,0 hPa 0,0 l/m 0 min 2 min 25 W/m 24,8 km/h (4 Bft) 93,48 %
27.12.2017 11:04 4,8 C 4,4 C 3,3 C 95 % 10 lf 983,0 hPa 0,0 l/m 0 min 2 min 25 W/m 15,8 km/h (3 Bft) 97,87 %
27.12.2017 11:06 4,8 C 4,4 C 3,3 C 95 % 10 lf 982,9 hPa 0,2 l/m 0 min 2 min 25 W/m 18,0 km/h (3 Bft) 95,74 %
27.12.2017 11:08 4,8 C 4,4 C 3,3 C 95 % 10 lf 982,9 hPa 0,0 l/m 0 min 2 min 28 W/m 15,8 km/h (3 Bft) 95,74 %
27.12.2017 11:10 4,8 C 4,4 C 3,3 C 95 % 10 lf 983,0 hPa 0,0 l/m 0 min 2 min 31 W/m 22,5 km/h (4 Bft) 93,62 %
27.12.2017 11:12 4,8 C 4,4 C 3,3 C 95 % 9 lf 982,9 hPa 0,0 l/m 0 min 2 min 37 W/m 18,0 km/h (3 Bft) 91,49 %
27.12.2017 11:14 4,8 C 4,4 C 3,3 C 95 % 10 lf 982,9 hPa 0,0 l/m 0 min 2 min 42 W/m 20,3 km/h (4 Bft) 95,65 %
27.12.2017 11:16 4,8 C 4,4 C 3,3 C 95 % 9 lf 982,9 hPa 0,0 l/m 0 min 2 min 46 W/m 15,8 km/h (3 Bft) 93,62 %
27.12.2017 11:18 4,8 C 4,4 C 3,9 C 95 % 10 lf 982,9 hPa 0,2 l/m 0 min 2 min 47 W/m 24,8 km/h (4 Bft) 95,74 %
27.12.2017 11:20 4,8 C 4,4 C 3,9 C 95 % 10 lf 982,9 hPa 0,0 l/m 0 min 2 min 49 W/m 18,0 km/h (3 Bft) 93,62 %
27.12.2017 11:22 4,8 C 4,4 C 3,9 C 95 % 10 lf 982,9 hPa 0,0 l/m 0 min 2 min 49 W/m 20,3 km/h (4 Bft) 95,74 %
27.12.2017 11:24 4,8 C 4,4 C 3,9 C 95 % 10 lf 982,9 hPa 0,0 l/m 0 min 2 min 46 W/m 24,8 km/h (4 Bft) 95,74 %
27.12.2017 11:26 4,8 C 4,4 C 3,9 C 96 % 9 lf 982,9 hPa 0,0 l/m 0 min 2 min 46 W/m 18,0 km/h (3 Bft) 91,30 %
27.12.2017 11:28 4,8 C 4,4 C 3,9 C 96 % 9 lf 982,8 hPa 0,0 l/m 0 min 2 min 46 W/m 18,0 km/h (3 Bft) 91,49 %
27.12.2017 11:30 4,8 C 4,4 C 3,9 C 96 % 8 lf 982,8 hPa 0,0 l/m 0 min 2 min 40 W/m 20,3 km/h (4 Bft) 91,49 %
27.12.2017 11:32 4,8 C 4,4 C 3,9 C 96 % 9 lf 982,8 hPa 0,0 l/m 0 min 2 min 37 W/m 27,0 km/h (4 Bft) 89,36 %
27.12.2017 11:34 4,9 C 4,4 C 3,9 C 96 % 8 lf 982,8 hPa 0,0 l/m 0 min 2 min 36 W/m 22,5 km/h (4 Bft) 91,49 %
27.12.2017 11:36 4,9 C 4,4 C 3,9 C 96 % 8 lf 982,7 hPa 0,2 l/m 0 min 2 min 42 W/m 20,3 km/h (4 Bft) 93,48 %
27.12.2017 11:38 4,8 C 4,4 C 3,9 C 96 % 8 lf 982,7 hPa 0,0 l/m 0 min 2 min 42 W/m 15,8 km/h (3 Bft) 93,62 %
27.12.2017 11:40 4,9 C 4,4 C 3,9 C 96 % 7 lf 982,8 hPa 0,0 l/m 0 min 2 min 41 W/m 18,0 km/h (3 Bft) 95,74 %
27.12.2017 11:42 4,9 C 4,4 C 3,9 C 96 % 6 lf 982,7 hPa 0,0 l/m 0 min 2 min 39 W/m 29,3 km/h (5 Bft) 94,29 %
27.12.2017 11:44 4,9 C 4,4 C 3,9 C 96 % 6 lf 982,7 hPa 0,0 l/m 0 min 2 min 37 W/m 24,8 km/h (4 Bft) 95,74 %
27.12.2017 11:46 4,9 C 4,4 C 3,9 C 96 % 6 lf 982,7 hPa 0,0 l/m 0 min 2 min 37 W/m 15,8 km/h (3 Bft) 91,49 %
27.12.2017 11:48 4,9 C 4,4 C 3,9 C 96 % 6 lf 982,6 hPa 0,0 l/m 0 min 2 min 42 W/m 15,8 km/h (3 Bft) 95,74 %
27.12.2017 11:50 4,9 C 4,4 C 3,9 C 96 % 5 lf 982,6 hPa 0,0 l/m 0 min 2 min 46 W/m 20,3 km/h (4 Bft) 89,36 %
27.12.2017 11:52 4,9 C 4,4 C 3,9 C 96 % 4 lf 982,5 hPa 0,0 l/m 0 min 0 min 51 W/m 15,8 km/h (3 Bft) 96,36 %
27.12.2017 11:54 4,9 C 4,4 C 3,9 C 96 % 4 lf 982,5 hPa 0,0 l/m 0 min 0 min 59 W/m 15,8 km/h (3 Bft) 95,74 %
27.12.2017 11:56 4,9 C 4,4 C 3,9 C 96 % 4 lf 982,5 hPa 0,0 l/m 0 min 0 min 60 W/m 15,8 km/h (3 Bft) 97,87 %
27.12.2017 11:58 4,9 C 4,4 C 3,9 C 96 % 3 lf 982,5 hPa 0,0 l/m 0 min 0 min 62 W/m 13,5 km/h (3 Bft) 95,65 %
27.12.2017 12:00 4,9 C 4,4 C 3,9 C 96 % 3 lf 982,6 hPa 0,0 l/m 0 min 0 min 63 W/m 18,0 km/h (3 Bft) 100,00 %
27.12.2017 12:02 5,0 C 5,0 C 3,9 C 96 % 3 lf 982,6 hPa 0,0 l/m 0 min 0 min 62 W/m 18,0 km/h (3 Bft) 97,87 %
27.12.2017 12:04 5,0 C 5,0 C 4,4 C 96 % 2 lf 982,5 hPa 0,0 l/m 0 min 0 min 68 W/m 15,8 km/h (3 Bft) 100,00 %
27.12.2017 12:06 5,0 C 5,0 C 4,4 C 96 % 2 lf 982,5 hPa 0,0 l/m 0 min 0 min 77 W/m 13,5 km/h (3 Bft) 97,87 %
27.12.2017 12:10 5,1 C 5,0 C 4,4 C 96 % 1 lf 982,5 hPa 0,0 l/m 0 min 0 min 75 W/m 15,8 km/h (3 Bft) 97,92 %
27.12.2017 12:12 5,1 C 5,0 C 4,4 C 96 % 0 lf 982,5 hPa 0,0 l/m 0 min 0 min 79 W/m 15,8 km/h (3 Bft) 97,87 %
27.12.2017 12:14 5,1 C 5,0 C 4,4 C 96 % 0 lf 982,5 hPa 0,0 l/m 0 min 0 min 89 W/m 13,5 km/h (3 Bft) 95,74 %
27.12.2017 12:16 5,1 C 5,0 C 4,4 C 96 % 0 lf 982,5 hPa 0,0 l/m 0 min 0 min 100 W/m 20,3 km/h (4 Bft) 95,74 %
27.12.2017 12:18 5,1 C 5,0 C 4,4 C 96 % 0 lf 982,4 hPa 0,0 l/m 0 min 0 min 110 W/m 13,5 km/h (3 Bft) 97,87 %
27.12.2017 12:20 5,2 C 5,6 C 5,0 C 96 % 0 lf 982,4 hPa 0,0 l/m 0 min 0 min 109 W/m 15,8 km/h (3 Bft) 97,83 %
27.12.2017 12:22 5,2 C 5,6 C 5,0 C 96 % 0 lf 982,4 hPa 0,0 l/m 0 min 0 min 115 W/m 18,0 km/h (3 Bft) 95,74 %
27.12.2017 12:24 5,2 C 5,6 C 5,0 C 96 % 0 lf 982,4 hPa 0,0 l/m 0 min 0 min 103 W/m 20,3 km/h (4 Bft) 97,87 %
27.12.2017 12:26 5,2 C 5,6 C 5,0 C 96 % 0 lf 982,4 hPa 0,0 l/m 0 min 0 min 82 W/m 18,0 km/h (3 Bft) 97,87 %
27.12.2017 12:28 5,3 C 5,0 C 4,4 C 96 % 0 lf 982,4 hPa 0,0 l/m 0 min 0 min 69 W/m 15,8 km/h (3 Bft) 97,87 %
27.12.2017 12:30 5,3 C 5,0 C 4,4 C 96 % 0 lf 982,4 hPa 0,0 l/m 0 min 0 min 69 W/m 15,8 km/h (3 Bft) 97,87 %
27.12.2017 12:32 5,3 C 5,6 C 4,4 C 96 % 0 lf 982,4 hPa 0,0 l/m 0 min 0 min 78 W/m 15,8 km/h (3 Bft) 97,83 %
27.12.2017 12:34 5,3 C 5,6 C 5,0 C 96 % 0 lf 982,4 hPa 0,0 l/m 0 min 0 min 77 W/m 15,8 km/h (3 Bft) 97,87 %
27.12.2017 12:36 5,4 C 5,6 C 4,4 C 96 % 0 lf 982,5 hPa 0,0 l/m 0 min 0 min 73 W/m 18,0 km/h (3 Bft) 97,87 %
27.12.2017 12:38 5,4 C 5,6 C 4,4 C 96 % 0 lf 982,5 hPa 0,0 l/m 0 min 0 min 68 W/m 18,0 km/h (3 Bft) 97,87 %
27.12.2017 12:40 5,4 C 5,6 C 4,4 C 96 % 0 lf 982,5 hPa 0,0 l/m 0 min 0 min 69 W/m 18,0 km/h (3 Bft) 97,87 %
27.12.2017 12:42 5,4 C 5,6 C 4,4 C 96 % 0 lf 982,4 hPa 0,0 l/m 0 min 0 min 69 W/m 20,3 km/h (4 Bft) 95,74 %
27.12.2017 12:44 5,4 C 5,6 C 4,4 C 96 % 0 lf 982,5 hPa 0,0 l/m 0 min 0 min 69 W/m 13,5 km/h (3 Bft) 97,83 %
27.12.2017 12:46 5,4 C 5,6 C 4,4 C 96 % 0 lf 982,5 hPa 0,0 l/m 0 min 0 min 63 W/m 15,8 km/h (3 Bft) 95,74 %
27.12.2017 12:48 5,4 C 5,6 C 4,4 C 96 % 0 lf 982,5 hPa 0,0 l/m 0 min 0 min 65 W/m 18,0 km/h (3 Bft) 97,87 %
27.12.2017 12:50 5,4 C 5,6 C 4,4 C 96 % 0 lf 982,5 hPa 0,0 l/m 0 min 2 min 70 W/m 20,3 km/h (4 Bft) 95,74 %
27.12.2017 12:52 5,5 C 5,6 C 4,4 C 96 % 0 lf 982,5 hPa 0,0 l/m 0 min 0 min 72 W/m 15,8 km/h (3 Bft) 93,62 %
27.12.2017 12:54 5,5 C 5,6 C 5,0 C 96 % 0 lf 982,5 hPa 0,0 l/m 0 min 0 min 79 W/m 15,8 km/h (3 Bft) 95,74 %
27.12.2017 12:56 5,5 C 5,6 C 5,0 C 96 % 0 lf 982,4 hPa 0,0 l/m 0 min 0 min 90 W/m 15,8 km/h (3 Bft) 95,65 %
27.12.2017 12:58 5,6 C 5,6 C 5,0 C 96 % 0 lf 982,4 hPa 0,0 l/m 0 min 0 min 109 W/m 20,3 km/h (4 Bft) 97,87 %
27.12.2017 13:00 5,6 C 6,1 C 5,0 C 96 % 0 lf 982,3 hPa 0,0 l/m 0 min 0 min 129 W/m 22,5 km/h (4 Bft) 95,74 %
27.12.2017 13:02 5,6 C 6,7 C 5,0 C 96 % 0 lf 982,3 hPa 0,0 l/m 2 min 0 min 155 W/m 20,3 km/h (4 Bft) 97,87 %
27.12.2017 13:04 5,7 C 6,7 C 5,0 C 96 % 0 lf 982,3 hPa 0,0 l/m 2 min 0 min 208 W/m 24,8 km/h (4 Bft) 97,87 %
27.12.2017 13:06 5,7 C 7,8 C 5,0 C 96 % 0 lf 982,3 hPa 0,0 l/m 2 min 0 min 176 W/m 18,0 km/h (3 Bft) 97,87 %
27.12.2017 13:08 5,8 C 7,8 C 5,0 C 96 % 0 lf 982,2 hPa 0,0 l/m 2 min 0 min 189 W/m 18,0 km/h (3 Bft) 95,65 %
27.12.2017 13:10 5,8 C 7,8 C 5,0 C 96 % 0 lf 982,2 hPa 0,0 l/m 2 min 0 min 172 W/m 20,3 km/h (4 Bft) 100,00 %
27.12.2017 13:12 5,8 C 8,3 C 5,0 C 96 % 0 lf 982,2 hPa 0,0 l/m 2 min 0 min 168 W/m 15,8 km/h (3 Bft) 95,74 %
27.12.2017 13:14 5,9 C 8,3 C 5,0 C 96 % 0 lf 982,2 hPa 0,0 l/m 2 min 0 min 196 W/m 18,0 km/h (3 Bft) 97,87 %
27.12.2017 13:16 5,9 C 7,8 C 5,0 C 96 % 0 lf 982,2 hPa 0,0 l/m 2 min 0 min 149 W/m 18,0 km/h (3 Bft) 100,00 %
27.12.2017 13:18 6,0 C 7,8 C 5,0 C 96 % 0 lf 982,2 hPa 0,0 l/m 2 min 0 min 195 W/m 15,8 km/h (3 Bft) 100,00 %
27.12.2017 13:20 6,0 C 7,8 C 5,0 C 96 % 0 lf 982,2 hPa 0,0 l/m 2 min 0 min 183 W/m 15,8 km/h (3 Bft) 100,00 %
27.12.2017 13:22 6,1 C 7,2 C 5,0 C 96 % 0 lf 982,2 hPa 0,0 l/m 2 min 0 min 144 W/m 24,8 km/h (4 Bft) 97,87 %
27.12.2017 13:24 6,1 C 7,8 C 5,0 C 96 % 0 lf 982,1 hPa 0,0 l/m 0 min 0 min 141 W/m 18,0 km/h (3 Bft) 95,74 %
27.12.2017 13:26 6,1 C 7,8 C 5,0 C 96 % 0 lf 982,1 hPa 0,0 l/m 2 min 0 min 165 W/m 15,8 km/h (3 Bft) 95,74 %
27.12.2017 13:28 6,2 C 8,3 C 5,0 C 96 % 0 lf 982,1 hPa 0,0 l/m 2 min 0 min 171 W/m 15,8 km/h (3 Bft) 95,74 %
27.12.2017 13:30 6,2 C 8,9 C 5,0 C 96 % 0 lf 982,1 hPa 0,0 l/m 2 min 0 min 169 W/m 9,0 km/h (2 Bft) 100,00 %
27.12.2017 13:32 6,3 C 8,3 C 5,0 C 96 % 0 lf 982,0 hPa 0,0 l/m 2 min 0 min 156 W/m 13,5 km/h (3 Bft) 95,65 %
27.12.2017 13:34 6,3 C 7,8 C 5,0 C 96 % 0 lf 982,0 hPa 0,0 l/m 0 min 0 min 117 W/m 13,5 km/h (3 Bft) 91,49 %
27.12.2017 13:36 6,3 C 7,2 C 5,0 C 96 % 0 lf 982,0 hPa 0,0 l/m 0 min 0 min 104 W/m 15,8 km/h (3 Bft) 93,62 %
27.12.2017 13:38 6,4 C 6,7 C 5,0 C 96 % 0 lf 982,0 hPa 0,0 l/m 0 min 0 min 101 W/m 18,0 km/h (3 Bft) 95,74 %
27.12.2017 13:40 6,4 C 6,7 C 5,0 C 95 % 0 lf 982,0 hPa 0,0 l/m 0 min 0 min 98 W/m 15,8 km/h (3 Bft) 93,62 %
27.12.2017 13:42 6,4 C 6,7 C 4,4 C 95 % 0 lf 982,1 hPa 0,0 l/m 0 min 0 min 91 W/m 24,8 km/h (4 Bft) 93,48 %
27.12.2017 13:44 6,4 C 6,1 C 4,4 C 95 % 0 lf 982,0 hPa 0,0 l/m 0 min 0 min 89 W/m 15,8 km/h (3 Bft) 95,74 %
27.12.2017 13:46 6,3 C 6,1 C 4,4 C 95 % 0 lf 982,0 hPa 0,0 l/m 0 min 0 min 92 W/m 20,3 km/h (4 Bft) 95,74 %
27.12.2017 13:48 6,3 C 6,7 C 4,4 C 94 % 0 lf 981,9 hPa 0,0 l/m 0 min 0 min 92 W/m 15,8 km/h (3 Bft) 93,62 %
27.12.2017 13:50 6,4 C 6,7 C 5,0 C 94 % 0 lf 982,1 hPa 0,0 l/m 0 min 0 min 98 W/m 13,5 km/h (3 Bft) 95,74 %
27.12.2017 13:52 6,4 C 6,7 C 5,0 C 94 % 0 lf 982,0 hPa 0,0 l/m 0 min 0 min 108 W/m 18,0 km/h (3 Bft) 93,62 %
27.12.2017 13:54 6,4 C 6,7 C 5,0 C 94 % 0 lf 982,0 hPa 0,0 l/m 0 min 0 min 105 W/m 24,8 km/h (4 Bft) 95,65 %
27.12.2017 13:56 6,4 C 6,1 C 4,4 C 93 % 0 lf 982,0 hPa 0,0 l/m 0 min 0 min 93 W/m 24,8 km/h (4 Bft) 95,74 %
27.12.2017 13:58 6,4 C 6,7 C 4,4 C 93 % 0 lf 982,0 hPa 0,0 l/m 0 min 0 min 86 W/m 18,0 km/h (3 Bft) 95,74 %
27.12.2017 14:00 6,4 C 6,7 C 4,4 C 92 % 0 lf 981,8 hPa 0,0 l/m 0 min 0 min 84 W/m 24,8 km/h (4 Bft) 93,62 %
27.12.2017 14:02 6,4 C 6,7 C 4,4 C 92 % 0 lf 981,8 hPa 0,0 l/m 0 min 0 min 84 W/m 20,3 km/h (4 Bft) 89,36 %
27.12.2017 14:04 6,4 C 6,7 C 4,4 C 91 % 0 lf 981,7 hPa 0,0 l/m 0 min 0 min 85 W/m 20,3 km/h (4 Bft) 93,62 %
27.12.2017 14:06 6,4 C 6,7 C 4,4 C 91 % 0 lf 981,7 hPa 0,0 l/m 0 min 0 min 91 W/m 20,3 km/h (4 Bft) 95,65 %
27.12.2017 14:08 6,4 C 6,7 C 4,4 C 90 % 0 lf 981,6 hPa 0,0 l/m 0 min 0 min 120 W/m 18,0 km/h (3 Bft) 95,74 %
27.12.2017 14:10 6,4 C 6,7 C 4,4 C 90 % 0 lf 981,7 hPa 0,0 l/m 0 min 0 min 92 W/m 18,0 km/h (3 Bft) 93,62 %
27.12.2017 14:12 6,5 C 6,7 C 4,4 C 90 % 0 lf 981,6 hPa 0,0 l/m 0 min 0 min 89 W/m 18,0 km/h (3 Bft) 97,87 %
27.12.2017 14:14 6,5 C 6,7 C 4,4 C 90 % 0 lf 981,7 hPa 0,0 l/m 0 min 0 min 108 W/m 15,8 km/h (3 Bft) 97,87 %
27.12.2017 14:16 6,6 C 7,2 C 4,4 C 89 % 0 lf 981,6 hPa 0,0 l/m 2 min 0 min 126 W/m 15,8 km/h (3 Bft) 95,74 %
27.12.2017 14:18 6,6 C 7,8 C 5,0 C 89 % 0 lf 981,7 hPa 0,0 l/m 2 min 0 min 143 W/m 18,0 km/h (3 Bft) 95,65 %
27.12.2017 14:20 6,6 C 7,8 C 5,0 C 89 % 0 lf 981,6 hPa 0,0 l/m 2 min 0 min 140 W/m 24,8 km/h (4 Bft) 97,87 %
27.12.2017 14:22 6,6 C 8,3 C 5,0 C 89 % 0 lf 981,7 hPa 0,0 l/m 2 min 0 min 119 W/m 15,8 km/h (3 Bft) 91,49 %
27.12.2017 14:24 6,7 C 8,3 C 5,0 C 89 % 0 lf 981,6 hPa 0,0 l/m 2 min 0 min 139 W/m 22,5 km/h (4 Bft) 93,62 %
27.12.2017 14:26 6,7 C 7,8 C 5,0 C 89 % 0 lf 981,6 hPa 0,0 l/m 2 min 0 min 133 W/m 20,3 km/h (4 Bft) 95,74 %
27.12.2017 14:28 6,7 C 7,2 C 5,0 C 88 % 0 lf 981,6 hPa 0,0 l/m 2 min 0 min 116 W/m 20,3 km/h (4 Bft) 97,87 %
27.12.2017 14:30 6,8 C 7,2 C 4,4 C 88 % 0 lf 981,6 hPa 0,0 l/m 0 min 0 min 97 W/m 20,3 km/h (4 Bft) 97,83 %
27.12.2017 14:32 6,8 C 6,7 C 4,4 C 88 % 0 lf 981,6 hPa 0,0 l/m 0 min 0 min 107 W/m 20,3 km/h (4 Bft) 97,87 %
27.12.2017 14:34 6,8 C 7,2 C 4,4 C 87 % 0 lf 981,6 hPa 0,0 l/m 2 min 0 min 115 W/m 20,3 km/h (4 Bft) 97,87 %
27.12.2017 14:36 6,8 C 7,2 C 4,4 C 87 % 0 lf 981,7 hPa 0,0 l/m 2 min 0 min 126 W/m 24,8 km/h (4 Bft) 97,87 %
27.12.2017 14:38 6,9 C 7,2 C 4,4 C 87 % 0 lf 981,6 hPa 0,0 l/m 0 min 0 min 100 W/m 20,3 km/h (4 Bft) 97,87 %
27.12.2017 14:40 6,9 C 7,8 C 5,0 C 87 % 0 lf 981,6 hPa 0,0 l/m 0 min 0 min 100 W/m 18,0 km/h (3 Bft) 97,87 %
27.12.2017 14:42 6,9 C 7,8 C 5,0 C 87 % 0 lf 981,7 hPa 0,0 l/m 0 min 0 min 96 W/m 15,8 km/h (3 Bft) 97,83 %
27.12.2017 14:44 6,9 C 7,8 C 5,0 C 86 % 0 lf 981,7 hPa 0,0 l/m 0 min 0 min 92 W/m 15,8 km/h (3 Bft) 97,87 %
27.12.2017 14:46 6,9 C 7,8 C 5,0 C 86 % 0 lf 981,7 hPa 0,0 l/m 0 min 0 min 89 W/m 20,3 km/h (4 Bft) 97,87 %
27.12.2017 14:48 6,9 C 7,8 C 5,0 C 86 % 0 lf 981,7 hPa 0,0 l/m 0 min 0 min 79 W/m 15,8 km/h (3 Bft) 97,87 %
27.12.2017 14:50 7,0 C 7,8 C 5,0 C 86 % 0 lf 981,7 hPa 0,0 l/m 0 min 0 min 65 W/m 15,8 km/h (3 Bft) 95,74 %
27.12.2017 14:52 7,0 C 7,8 C 5,0 C 86 % 0 lf 981,7 hPa 0,0 l/m 0 min 0 min 53 W/m 11,3 km/h (2 Bft) 97,83 %
27.12.2017 14:54 7,0 C 7,2 C 5,0 C 86 % 0 lf 981,7 hPa 0,0 l/m 0 min 0 min 47 W/m 11,3 km/h (2 Bft) 100,00 %
27.12.2017 14:56 7,1 C 7,2 C 5,0 C 86 % 0 lf 981,7 hPa 0,0 l/m 0 min 0 min 48 W/m 15,8 km/h (3 Bft) 100,00 %
27.12.2017 14:58 7,1 C 7,2 C 5,0 C 86 % 0 lf 981,7 hPa 0,0 l/m 0 min 0 min 41 W/m 18,0 km/h (3 Bft) 100,00 %
27.12.2017 15:00 7,1 C 7,2 C 4,4 C 86 % 0 lf 981,7 hPa 0,0 l/m 0 min 0 min 37 W/m 24,8 km/h (4 Bft) 97,87 %
27.12.2017 15:02 7,1 C 7,2 C 4,4 C 85 % 0 lf 981,7 hPa 0,0 l/m 0 min 0 min 38 W/m 15,8 km/h (3 Bft) 100,00 %
27.12.2017 15:04 7,0 C 7,2 C 5,0 C 85 % 0 lf 981,8 hPa 0,0 l/m 0 min 0 min 50 W/m 15,8 km/h (3 Bft) 97,83 %
27.12.2017 15:06 7,0 C 7,2 C 5,0 C 85 % 0 lf 981,8 hPa 0,0 l/m 0 min 0 min 45 W/m 18,0 km/h (3 Bft) 100,00 %
27.12.2017 15:08 7,0 C 7,2 C 4,4 C 85 % 0 lf 981,8 hPa 0,0 l/m 0 min 0 min 44 W/m 18,0 km/h (3 Bft) 97,87 %
27.12.2017 15:10 7,1 C 7,2 C 4,4 C 85 % 0 lf 981,7 hPa 0,0 l/m 0 min 0 min 51 W/m 18,0 km/h (3 Bft) 97,87 %
27.12.2017 15:12 7,0 C 7,2 C 4,4 C 85 % 0 lf 981,7 hPa 0,0 l/m 0 min 0 min 61 W/m 20,3 km/h (4 Bft) 100,00 %
27.12.2017 15:14 7,0 C 7,2 C 4,4 C 84 % 0 lf 981,8 hPa 0,0 l/m 0 min 0 min 57 W/m 11,3 km/h (2 Bft) 95,74 %
27.12.2017 15:16 7,0 C 7,2 C 4,4 C 84 % 0 lf 981,8 hPa 0,0 l/m 0 min 0 min 47 W/m 20,3 km/h (4 Bft) 97,83 %
27.12.2017 15:18 7,0 C 7,2 C 4,4 C 84 % 0 lf 981,8 hPa 0,0 l/m 0 min 0 min 47 W/m 18,0 km/h (3 Bft) 100,00 %
27.12.2017 15:20 7,1 C 7,2 C 4,4 C 84 % 0 lf 981,8 hPa 0,0 l/m 0 min 0 min 54 W/m 20,3 km/h (4 Bft) 100,00 %
27.12.2017 15:22 7,0 C 7,2 C 4,4 C 84 % 0 lf 982,0 hPa 0,0 l/m 0 min 0 min 53 W/m 18,0 km/h (3 Bft) 97,87 %
27.12.2017 15:24 7,1 C 7,2 C 4,4 C 84 % 0 lf 982,1 hPa 0,0 l/m 0 min 0 min 51 W/m 18,0 km/h (3 Bft) 97,87 %
27.12.2017 15:26 7,1 C 7,2 C 4,4 C 83 % 0 lf 982,0 hPa 0,0 l/m 0 min 0 min 53 W/m 11,3 km/h (2 Bft) 97,87 %
27.12.2017 15:28 7,1 C 7,2 C 4,4 C 83 % 0 lf 982,0 hPa 0,0 l/m 0 min 0 min 53 W/m 11,3 km/h (2 Bft) 97,83 %
27.12.2017 15:30 7,1 C 7,2 C 4,4 C 83 % 0 lf 982,1 hPa 0,0 l/m 0 min 0 min 48 W/m 11,3 km/h (2 Bft) 93,62 %
27.12.2017 15:32 7,1 C 7,2 C 4,4 C 83 % 0 lf 982,1 hPa 0,0 l/m 0 min 0 min 43 W/m 13,5 km/h (3 Bft) 97,87 %
27.12.2017 15:34 7,1 C 7,2 C 4,4 C 83 % 0 lf 982,2 hPa 0,0 l/m 0 min 0 min 39 W/m 9,0 km/h (2 Bft) 93,62 %
27.12.2017 15:36 7,1 C 7,2 C 4,4 C 83 % 0 lf 982,2 hPa 0,0 l/m 0 min 0 min 36 W/m 13,5 km/h (3 Bft) 97,37 %
27.12.2017 15:38 7,1 C 7,2 C 4,4 C 83 % 0 lf 982,2 hPa 0,0 l/m 0 min 0 min 33 W/m 13,5 km/h (3 Bft) 93,62 %
27.12.2017 15:40 7,1 C 7,2 C 4,4 C 83 % 0 lf 982,3 hPa 0,0 l/m 0 min 0 min 31 W/m 6,8 km/h (2 Bft) 97,87 %
27.12.2017 15:42 7,1 C 7,2 C 4,4 C 83 % 0 lf 982,3 hPa 0,0 l/m 0 min 0 min 28 W/m 13,5 km/h (3 Bft) 95,65 %
27.12.2017 15:44 7,1 C 7,2 C 4,4 C 83 % 0 lf 982,2 hPa 0,0 l/m 0 min 0 min 26 W/m 15,8 km/h (3 Bft) 95,74 %
27.12.2017 15:46 7,1 C 7,2 C 4,4 C 83 % 0 lf 982,3 hPa 0,0 l/m 0 min 0 min 27 W/m 13,5 km/h (3 Bft) 95,74 %
27.12.2017 15:48 7,0 C 7,2 C 4,4 C 83 % 0 lf 982,3 hPa 0,0 l/m 0 min 0 min 28 W/m 11,3 km/h (2 Bft) 95,74 %
27.12.2017 15:50 7,0 C 7,2 C 4,4 C 83 % 0 lf 982,4 hPa 0,0 l/m 0 min 0 min 28 W/m 11,3 km/h (2 Bft) 95,74 %
27.12.2017 15:52 7,0 C 7,2 C 4,4 C 83 % 0 lf 982,4 hPa 0,0 l/m 0 min 0 min 31 W/m 11,3 km/h (2 Bft) 95,74 %
27.12.2017 15:54 7,0 C 7,2 C 4,4 C 83 % 0 lf 982,4 hPa 0,0 l/m 0 min 0 min 32 W/m 9,0 km/h (2 Bft) 95,74 %
27.12.2017 15:56 7,0 C 7,2 C 4,4 C 83 % 0 lf 982,4 hPa 0,0 l/m 0 min 0 min 32 W/m 11,3 km/h (2 Bft) 95,65 %
27.12.2017 15:58 7,0 C 7,2 C 4,4 C 83 % 0 lf 982,4 hPa 0,0 l/m 0 min 0 min 31 W/m 11,3 km/h (2 Bft) 95,74 %
27.12.2017 16:00 7,0 C 6,7 C 4,4 C 83 % 0 lf 982,4 hPa 0,0 l/m 0 min 0 min 27 W/m 11,3 km/h (2 Bft) 95,74 %
27.12.2017 16:02 7,0 C 6,7 C 3,9 C 83 % 0 lf 982,5 hPa 0,0 l/m 0 min 0 min 24 W/m 6,8 km/h (2 Bft) 95,74 %
27.12.2017 16:04 7,0 C 6,7 C 3,9 C 83 % 0 lf 982,4 hPa 0,0 l/m 0 min 0 min 22 W/m 9,0 km/h (2 Bft) 93,62 %
27.12.2017 16:06 7,0 C 6,7 C 3,9 C 82 % 0 lf 982,5 hPa 0,0 l/m 0 min 0 min 20 W/m 9,0 km/h (2 Bft) 95,74 %
27.12.2017 16:08 6,9 C 6,7 C 3,9 C 82 % 0 lf 982,5 hPa 0,0 l/m 0 min 0 min 19 W/m 9,0 km/h (2 Bft) 97,83 %
27.12.2017 16:10 6,9 C 6,7 C 3,9 C 82 % 0 lf 982,4 hPa 0,0 l/m 0 min 0 min 19 W/m 6,8 km/h (2 Bft) 95,74 %
27.12.2017 16:12 6,9 C 6,7 C 3,9 C 82 % 0 lf 982,4 hPa 0,0 l/m 0 min 0 min 19 W/m 4,5 km/h (1 Bft) 95,74 %
27.12.2017 16:14 6,9 C 6,7 C 3,9 C 82 % 0 lf 982,4 hPa 0,0 l/m 0 min 0 min 19 W/m 9,0 km/h (2 Bft) 91,49 %
27.12.2017 16:16 6,9 C 6,7 C 3,9 C 82 % 0 lf 982,4 hPa 0,0 l/m 0 min 0 min 19 W/m 11,3 km/h (2 Bft) 95,74 %
27.12.2017 16:18 6,9 C 6,7 C 3,9 C 82 % 0 lf 982,4 hPa 0,0 l/m 0 min 0 min 19 W/m 6,8 km/h (2 Bft) 93,62 %
27.12.2017 16:20 6,8 C 6,7 C 3,9 C 82 % 0 lf 982,5 hPa 0,0 l/m 0 min 0 min 18 W/m 6,8 km/h (2 Bft) 95,65 %
27.12.2017 16:22 6,8 C 6,7 C 3,9 C 82 % 0 lf 982,5 hPa 0,0 l/m 0 min 0 min 14 W/m 6,8 km/h (2 Bft) 91,49 %
27.12.2017 16:24 6,8 C 6,7 C 3,9 C 82 % 0 lf 982,4 hPa 0,0 l/m 0 min 0 min 11 W/m 9,0 km/h (2 Bft) 93,62 %
27.12.2017 16:26 6,8 C 6,1 C 3,9 C 82 % 0 lf 982,5 hPa 0,0 l/m 0 min 0 min 7 W/m 6,8 km/h (2 Bft) 93,62 %
27.12.2017 16:28 6,8 C 6,1 C 3,9 C 82 % 0 lf 982,5 hPa 0,0 l/m 0 min 0 min 5 W/m 6,8 km/h (2 Bft) 93,62 %
27.12.2017 16:30 6,8 C 6,1 C 3,3 C 83 % 0 lf 982,4 hPa 0,0 l/m 0 min 0 min 5 W/m 9,0 km/h (2 Bft) 97,87 %
27.12.2017 16:32 6,8 C 6,1 C 3,3 C 83 % 0 lf 982,4 hPa 0,0 l/m 0 min 0 min 5 W/m 4,5 km/h (1 Bft) 93,48 %
27.12.2017 16:34 6,8 C 6,1 C 3,3 C 83 % 0 lf 982,4 hPa 0,0 l/m 0 min 0 min 5 W/m 11,3 km/h (2 Bft) 97,87 %
27.12.2017 16:36 6,7 C 6,1 C 3,3 C 83 % 0 lf 982,4 hPa 0,0 l/m 0 min 0 min 3 W/m 11,3 km/h (2 Bft) 97,87 %
27.12.2017 16:38 6,7 C 6,1 C 3,3 C 83 % 0 lf 982,4 hPa 0,0 l/m 0 min 0 min 0 W/m 6,8 km/h (2 Bft) 93,62 %
27.12.2017 16:40 6,7 C 5,6 C 3,3 C 83 % 0 lf 982,4 hPa 0,0 l/m 0 min 0 min 0 W/m 9,0 km/h (2 Bft) 97,87 %
27.12.2017 16:42 6,7 C 5,6 C 2,8 C 83 % 0 lf 982,5 hPa 0,0 l/m 0 min 0 min 0 W/m 9,0 km/h (2 Bft) 97,87 %
27.12.2017 16:44 6,6 C 5,6 C 3,3 C 83 % 0 lf 982,4 hPa 0,0 l/m 0 min 0 min 0 W/m 6,8 km/h (2 Bft) 97,83 %
27.12.2017 16:46 6,6 C 5,6 C 2,8 C 83 % 0 lf 982,5 hPa 0,0 l/m 0 min 0 min 0 W/m 6,8 km/h (2 Bft) 95,74 %
27.12.2017 16:48 6,6 C 5,6 C 2,8 C 83 % 0 lf 982,5 hPa 0,0 l/m 0 min 0 min 0 W/m 4,5 km/h (1 Bft) 97,87 %
27.12.2017 16:50 6,6 C 5,6 C 2,8 C 83 % 0 lf 982,5 hPa 0,0 l/m 0 min 0 min 0 W/m 9,0 km/h (2 Bft) 95,74 %
27.12.2017 16:52 6,5 C 5,6 C 2,8 C 83 % 0 lf 982,4 hPa 0,0 l/m 0 min 0 min 0 W/m 4,5 km/h (1 Bft) 93,62 %
27.12.2017 16:54 6,5 C 5,6 C 2,2 C 83 % 0 lf 982,5 hPa 0,0 l/m 0 min 0 min 0 W/m 9,0 km/h (2 Bft) 97,87 %
27.12.2017 16:56 6,5 C 5,6 C 2,2 C 83 % 0 lf 982,5 hPa 0,0 l/m 0 min 0 min 0 W/m 6,8 km/h (2 Bft) 95,65 %
27.12.2017 16:58 6,4 C 5,6 C 2,2 C 83 % 0 lf 982,5 hPa 0,0 l/m 0 min 0 min 0 W/m 6,8 km/h (2 Bft) 97,87 %
27.12.2017 17:00 6,4 C 5,0 C 2,2 C 83 % 0 lf 982,5 hPa 0,0 l/m 0 min 0 min 0 W/m 9,0 km/h (2 Bft) 95,74 %
27.12.2017 17:02 6,4 C 5,0 C 2,2 C 83 % 0 lf 982,5 hPa 0,0 l/m 0 min 0 min 0 W/m 9,0 km/h (2 Bft) 93,62 %
27.12.2017 17:04 6,4 C 5,0 C 2,2 C 83 % 0 lf 982,5 hPa 0,0 l/m 0 min 0 min 0 W/m 6,8 km/h (2 Bft) 97,87 %
27.12.2017 17:06 6,3 C 5,0 C 2,2 C 83 % 0 lf 982,5 hPa 0,0 l/m 0 min 0 min 0 W/m 4,5 km/h (1 Bft) 95,65 %
27.12.2017 17:08 6,3 C 5,0 C 1,7 C 83 % 0 lf 982,5 hPa 0,0 l/m 0 min 0 min 0 W/m 6,8 km/h (2 Bft) 93,62 %
27.12.2017 17:10 6,3 C 5,0 C 1,7 C 83 % 0 lf 982,5 hPa 0,0 l/m 0 min 0 min 0 W/m 4,5 km/h (1 Bft) 95,74 %
27.12.2017 17:12 6,2 C 5,0 C 1,7 C 84 % 0 lf 982,6 hPa 0,0 l/m 0 min 0 min 0 W/m 4,5 km/h (1 Bft) 95,74 %
27.12.2017 17:14 6,2 C 5,0 C 1,7 C 84 % 0 lf 982,6 hPa 0,0 l/m 0 min 0 min 0 W/m 4,5 km/h (1 Bft) 97,87 %
27.12.2017 17:16 6,2 C 5,0 C 1,7 C 84 % 0 lf 982,6 hPa 0,0 l/m 0 min 0 min 0 W/m 4,5 km/h (1 Bft) 95,74 %
27.12.2017 17:18 6,1 C 5,0 C 1,1 C 84 % 0 lf 982,6 hPa 0,0 l/m 0 min 0 min 0 W/m 4,5 km/h (1 Bft) 95,65 %
27.12.2017 17:20 6,1 C 4,4 C 1,1 C 84 % 0 lf 982,7 hPa 0,0 l/m 0 min 0 min 0 W/m 4,5 km/h (1 Bft) 95,74 %
27.12.2017 17:22 6,1 C 4,4 C 1,1 C 84 % 0 lf 982,7 hPa 0,0 l/m 0 min 0 min 0 W/m 4,5 km/h (1 Bft) 97,87 %
27.12.2017 17:24 6,0 C 4,4 C 1,1 C 84 % 0 lf 982,7 hPa 0,0 l/m 0 min 0 min 0 W/m 4,5 km/h (1 Bft) 91,49 %
27.12.2017 17:26 5,9 C 4,4 C 1,1 C 84 % 0 lf 982,7 hPa 0,0 l/m 0 min 0 min 0 W/m 4,5 km/h (1 Bft) 97,87 %
27.12.2017 17:28 5,9 C 3,9 C 1,1 C 84 % 0 lf 982,7 hPa 0,0 l/m 0 min 0 min 0 W/m 2,3 km/h (1 Bft) 93,62 %
27.12.2017 17:30 5,8 C 3,9 C 1,1 C 84 % 0 lf 982,7 hPa 0,0 l/m 0 min 0 min 0 W/m 4,5 km/h (1 Bft) 97,83 %
27.12.2017 17:32 5,7 C 3,9 C 1,1 C 84 % 0 lf 982,6 hPa 0,0 l/m 0 min 0 min 0 W/m 4,5 km/h (1 Bft) 93,62 %
27.12.2017 17:34 5,7 C 3,9 C 1,1 C 84 % 0 lf 982,7 hPa 0,0 l/m 0 min 0 min 0 W/m 4,5 km/h (1 Bft) 91,49 %
27.12.2017 17:36 5,6 C 3,9 C 1,1 C 84 % 0 lf 982,6 hPa 0,0 l/m 0 min 0 min 0 W/m 6,8 km/h (2 Bft) 95,74 %
27.12.2017 17:38 5,6 C 3,9 C 1,1 C 84 % 0 lf 982,6 hPa 0,0 l/m 0 min 0 min 0 W/m 6,8 km/h (2 Bft) 97,87 %
27.12.2017 17:40 5,5 C 3,9 C 1,1 C 84 % 0 lf 982,6 hPa 0,0 l/m 0 min 0 min 0 W/m 6,8 km/h (2 Bft) 91,49 %
27.12.2017 17:42 5,5 C 3,9 C 1,1 C 84 % 0 lf 982,6 hPa 0,0 l/m 0 min 0 min 0 W/m 4,5 km/h (1 Bft) 95,65 %
27.12.2017 17:44 5,4 C 4,4 C 1,7 C 84 % 0 lf 982,7 hPa 0,0 l/m 0 min 0 min 0 W/m 6,8 km/h (2 Bft) 95,74 %
27.12.2017 17:46 5,4 C 4,4 C 1,7 C 85 % 0 lf 982,7 hPa 0,0 l/m 0 min 0 min 0 W/m 9,0 km/h (2 Bft) 97,87 %
27.12.2017 17:48 5,4 C 4,4 C 1,7 C 85 % 0 lf 982,8 hPa 0,0 l/m 0 min 0 min 0 W/m 4,5 km/h (1 Bft) 97,87 %
27.12.2017 17:50 5,3 C 4,4 C 1,7 C 85 % 0 lf 982,8 hPa 0,0 l/m 0 min 0 min 0 W/m 4,5 km/h (1 Bft) 97,87 %
27.12.2017 17:52 5,3 C 4,4 C 1,7 C 86 % 0 lf 982,9 hPa 0,0 l/m 0 min 0 min 0 W/m 6,8 km/h (2 Bft) 95,74 %
27.12.2017 17:54 5,2 C 4,4 C 1,7 C 86 % 0 lf 982,9 hPa 0,0 l/m 0 min 0 min 0 W/m 6,8 km/h (2 Bft) 97,83 %
27.12.2017 17:56 5,2 C 4,4 C 1,7 C 86 % 0 lf 982,9 hPa 0,0 l/m 0 min 0 min 0 W/m 4,5 km/h (1 Bft) 95,74 %
27.12.2017 17:58 5,2 C 4,4 C 1,7 C 86 % 0 lf 982,9 hPa 0,0 l/m 0 min 0 min 0 W/m 4,5 km/h (1 Bft) 100,00 %
27.12.2017 18:00 5,2 C 4,4 C 1,7 C 86 % 0 lf 982,9 hPa 0,0 l/m 0 min 0 min 0 W/m 4,5 km/h (1 Bft) 100,00 %
27.12.2017 18:02 5,1 C 4,4 C 1,7 C 86 % 0 lf 982,9 hPa 0,0 l/m 0 min 0 min 0 W/m 6,8 km/h (2 Bft) 97,87 %
27.12.2017 18:04 5,1 C 4,4 C 1,7 C 87 % 0 lf 982,9 hPa 0,0 l/m 0 min 0 min 0 W/m 6,8 km/h (2 Bft) 100,00 %
27.12.2017 18:06 5,1 C 4,4 C 1,7 C 87 % 0 lf 982,9 hPa 0,0 l/m 0 min 0 min 0 W/m 6,8 km/h (2 Bft) 100,00 %
27.12.2017 18:10 5,0 C 4,4 C 2,2 C 88 % 0 lf 983,0 hPa 0,0 l/m 0 min 0 min 0 W/m 6,8 km/h (2 Bft) 100,00 %
27.12.2017 18:12 5,0 C 4,4 C 2,2 C 88 % 0 lf 983,0 hPa 0,0 l/m 0 min 0 min 0 W/m 6,8 km/h (2 Bft) 100,00 %
27.12.2017 18:14 5,0 C 4,4 C 2,2 C 88 % 0 lf 983,1 hPa 0,0 l/m 0 min 0 min 0 W/m 6,8 km/h (2 Bft) 97,87 %
27.12.2017 18:16 5,0 C 4,4 C 2,2 C 88 % 0 lf 983,1 hPa 0,0 l/m 0 min 0 min 0 W/m 4,5 km/h (1 Bft) 100,00 %
27.12.2017 18:18 4,9 C 5,0 C 2,2 C 88 % 0 lf 983,1 hPa 0,0 l/m 0 min 0 min 0 W/m 4,5 km/h (1 Bft) 100,00 %
27.12.2017 18:20 4,9 C 4,4 C 2,2 C 88 % 0 lf 983,1 hPa 0,0 l/m 0 min 0 min 0 W/m 4,5 km/h (1 Bft) 97,87 %
27.12.2017 18:22 4,9 C 5,0 C 2,2 C 89 % 0 lf 983,1 hPa 0,0 l/m 0 min 0 min 0 W/m 4,5 km/h (1 Bft) 100,00 %
27.12.2017 18:24 4,9 C 5,0 C 2,2 C 89 % 0 lf 983,1 hPa 0,0 l/m 0 min 0 min 0 W/m 9,0 km/h (2 Bft) 100,00 %
27.12.2017 18:26 4,9 C 5,0 C 2,2 C 89 % 0 lf 983,1 hPa 0,0 l/m 0 min 0 min 0 W/m 6,8 km/h (2 Bft) 95,74 %
27.12.2017 18:28 4,9 C 5,0 C 2,8 C 89 % 0 lf 983,1 hPa 0,0 l/m 0 min 0 min 0 W/m 6,8 km/h (2 Bft) 100,00 %
27.12.2017 18:30 4,9 C 5,0 C 2,8 C 89 % 0 lf 983,2 hPa 0,0 l/m 0 min 0 min 0 W/m 6,8 km/h (2 Bft) 100,00 %
27.12.2017 18:32 4,9 C 5,0 C 2,8 C 89 % 0 lf 983,2 hPa 0,0 l/m 0 min 0 min 0 W/m 6,8 km/h (2 Bft) 100,00 %
27.12.2017 18:34 4,9 C 5,0 C 2,8 C 89 % 0 lf 983,2 hPa 0,0 l/m 0 min 0 min 0 W/m 4,5 km/h (1 Bft) 100,00 %
27.12.2017 18:36 4,9 C 5,0 C 2,8 C 89 % 0 lf 983,2 hPa 0,0 l/m 0 min 0 min 0 W/m 4,5 km/h (1 Bft) 95,74 %
27.12.2017 18:38 4,9 C 5,0 C 2,8 C 89 % 0 lf 983,3 hPa 0,0 l/m 0 min 0 min 0 W/m 6,8 km/h (2 Bft) 100,00 %
27.12.2017 18:40 4,9 C 5,0 C 2,8 C 89 % 0 lf 983,2 hPa 0,0 l/m 0 min 0 min 0 W/m 6,8 km/h (2 Bft) 100,00 %
27.12.2017 18:42 4,9 C 5,0 C 2,8 C 90 % 0 lf 983,3 hPa 0,0 l/m 0 min 0 min 0 W/m 6,8 km/h (2 Bft) 100,00 %
27.12.2017 18:44 4,9 C 5,0 C 2,8 C 90 % 0 lf 983,3 hPa 0,0 l/m 0 min 0 min 0 W/m 6,8 km/h (2 Bft) 100,00 %
27.12.2017 18:46 4,9 C 5,0 C 2,8 C 90 % 0 lf 983,3 hPa 0,0 l/m 0 min 0 min 0 W/m 6,8 km/h (2 Bft) 100,00 %
27.12.2017 18:48 4,9 C 5,0 C 2,8 C 90 % 0 lf 983,3 hPa 0,0 l/m 0 min 0 min 0 W/m 6,8 km/h (2 Bft) 100,00 %
27.12.2017 18:50 4,9 C 5,0 C 2,8 C 90 % 0 lf 983,3 hPa 0,0 l/m 0 min 0 min 0 W/m 6,8 km/h (2 Bft) 91,49 %
27.12.2017 18:52 4,9 C 5,0 C 2,8 C 90 % 0 lf 983,3 hPa 0,0 l/m 0 min 0 min 0 W/m 6,8 km/h (2 Bft) 100,00 %
27.12.2017 18:54 4,9 C 5,0 C 2,8 C 90 % 0 lf 983,4 hPa 0,0 l/m 0 min 0 min 0 W/m 4,5 km/h (1 Bft) 100,00 %
27.12.2017 18:56 4,9 C 5,0 C 2,8 C 90 % 0 lf 983,4 hPa 0,0 l/m 0 min 0 min 0 W/m 6,8 km/h (2 Bft) 97,87 %
27.12.2017 18:58 4,9 C 5,0 C 2,8 C 90 % 0 lf 983,4 hPa 0,0 l/m 0 min 0 min 0 W/m 4,5 km/h (1 Bft) 100,00 %
27.12.2017 19:00 4,9 C 5,0 C 2,8 C 90 % 0 lf 983,5 hPa 0,0 l/m 0 min 0 min 0 W/m 6,8 km/h (2 Bft) 100,00 %
27.12.2017 19:02 4,9 C 5,0 C 2,8 C 90 % 0 lf 983,5 hPa 0,0 l/m 0 min 0 min 0 W/m 9,0 km/h (2 Bft) 97,87 %
27.12.2017 19:04 4,9 C 5,0 C 2,8 C 90 % 0 lf 983,5 hPa 0,0 l/m 0 min 0 min 0 W/m 9,0 km/h (2 Bft) 100,00 %
27.12.2017 19:06 4,9 C 5,0 C 2,8 C 90 % 0 lf 983,5 hPa 0,0 l/m 0 min 0 min 0 W/m 6,8 km/h (2 Bft) 97,87 %
27.12.2017 19:08 4,9 C 5,0 C 2,8 C 90 % 0 lf 983,5 hPa 0,0 l/m 0 min 0 min 0 W/m 11,3 km/h (2 Bft) 95,74 %
27.12.2017 19:10 4,9 C 5,0 C 3,3 C 90 % 0 lf 983,6 hPa 0,0 l/m 0 min 0 min 0 W/m 6,8 km/h (2 Bft) 93,62 %
27.12.2017 19:12 4,9 C 5,0 C 2,8 C 90 % 0 lf 983,6 hPa 0,0 l/m 0 min 0 min 0 W/m 6,8 km/h (2 Bft) 95,74 %
27.12.2017 19:14 4,9 C 5,0 C 3,3 C 90 % 0 lf 983,7 hPa 0,0 l/m 0 min 0 min 0 W/m 9,0 km/h (2 Bft) 93,62 %
27.12.2017 19:16 4,9 C 5,0 C 3,3 C 90 % 0 lf 983,7 hPa 0,0 l/m 0 min 0 min 0 W/m 9,0 km/h (2 Bft) 97,83 %
27.12.2017 19:18 4,9 C 5,0 C 3,3 C 90 % 0 lf 983,7 hPa 0,0 l/m 0 min 2 min 0 W/m 6,8 km/h (2 Bft) 97,87 %
27.12.2017 19:20 4,9 C 5,0 C 3,3 C 91 % 1 lf 983,7 hPa 0,0 l/m 0 min 2 min 0 W/m 9,0 km/h (2 Bft) 97,87 %
27.12.2017 19:22 4,9 C 5,0 C 3,3 C 91 % 2 lf 983,7 hPa 0,0 l/m 0 min 2 min 0 W/m 9,0 km/h (2 Bft) 91,49 %
27.12.2017 19:24 4,9 C 5,0 C 3,3 C 91 % 2 lf 983,7 hPa 0,0 l/m 0 min 2 min 0 W/m 11,3 km/h (2 Bft) 93,62 %
27.12.2017 19:26 5,0 C 5,0 C 3,3 C 91 % 2 lf 983,8 hPa 0,0 l/m 0 min 2 min 0 W/m 11,3 km/h (2 Bft) 91,30 %
27.12.2017 19:28 5,0 C 5,0 C 3,3 C 91 % 4 lf 983,8 hPa 0,0 l/m 0 min 2 min 0 W/m 11,3 km/h (2 Bft) 93,62 %
27.12.2017 19:30 5,0 C 5,0 C 3,3 C 91 % 5 lf 983,8 hPa 0,0 l/m 0 min 2 min 0 W/m 9,0 km/h (2 Bft) 91,49 %
27.12.2017 19:32 5,1 C 5,0 C 3,3 C 91 % 10 lf 983,8 hPa 0,0 l/m 0 min 2 min 0 W/m 15,8 km/h (3 Bft) 91,49 %
27.12.2017 19:34 5,1 C 5,0 C 3,3 C 91 % 10 lf 983,8 hPa 0,0 l/m 0 min 2 min 0 W/m 15,8 km/h (3 Bft) 91,49 %
27.12.2017 19:36 5,1 C 5,0 C 3,3 C 91 % 11 lf 983,9 hPa 0,0 l/m 0 min 2 min 0 W/m 18,0 km/h (3 Bft) 93,62 %
27.12.2017 19:38 5,1 C 4,4 C 3,3 C 91 % 12 lf 983,9 hPa 0,0 l/m 0 min 2 min 0 W/m 13,5 km/h (3 Bft) 91,30 %
27.12.2017 19:40 5,2 C 4,4 C 3,3 C 91 % 12 lf 983,9 hPa 0,0 l/m 0 min 2 min 0 W/m 15,8 km/h (3 Bft) 91,49 %
27.12.2017 19:42 5,2 C 4,4 C 3,3 C 91 % 13 lf 983,9 hPa 0,0 l/m 0 min 2 min 0 W/m 18,0 km/h (3 Bft) 89,36 %
27.12.2017 19:44 5,2 C 4,4 C 3,3 C 92 % 13 lf 983,9 hPa 0,0 l/m 0 min 2 min 0 W/m 18,0 km/h (3 Bft) 89,36 %
27.12.2017 19:46 5,2 C 4,4 C 3,3 C 92 % 13 lf 983,9 hPa 0,0 l/m 0 min 2 min 0 W/m 18,0 km/h (3 Bft) 91,49 %
27.12.2017 19:48 5,2 C 4,4 C 3,3 C 92 % 13 lf 984,0 hPa 0,0 l/m 0 min 2 min 0 W/m 13,5 km/h (3 Bft) 85,11 %
27.12.2017 19:50 5,2 C 4,4 C 3,3 C 91 % 14 lf 984,0 hPa 0,2 l/m 0 min 2 min 0 W/m 13,5 km/h (3 Bft) 91,30 %
27.12.2017 19:52 5,2 C 4,4 C 3,3 C 91 % 15 lf 984,1 hPa 0,0 l/m 0 min 2 min 0 W/m 13,5 km/h (3 Bft) 89,36 %
27.12.2017 19:54 5,2 C 4,4 C 3,3 C 91 % 15 lf 984,1 hPa 0,0 l/m 0 min 2 min 0 W/m 20,3 km/h (4 Bft) 95,74 %
27.12.2017 19:56 5,2 C 4,4 C 3,3 C 91 % 15 lf 984,1 hPa 0,0 l/m 0 min 2 min 0 W/m 11,3 km/h (2 Bft) 89,36 %
27.12.2017 19:58 5,2 C 4,4 C 3,3 C 92 % 15 lf 984,1 hPa 0,0 l/m 0 min 2 min 0 W/m 15,8 km/h (3 Bft) 95,74 %
27.12.2017 20:00 5,2 C 4,4 C 3,3 C 92 % 15 lf 984,1 hPa 0,0 l/m 0 min 0 min 0 W/m 11,3 km/h (2 Bft) 95,74 %
27.12.2017 20:02 5,2 C 4,4 C 3,3 C 92 % 15 lf 984,1 hPa 0,0 l/m 0 min 2 min 0 W/m 13,5 km/h (3 Bft) 95,65 %
27.12.2017 20:04 5,2 C 4,4 C 3,3 C 92 % 15 lf 984,2 hPa 0,0 l/m 0 min 2 min 0 W/m 9,0 km/h (2 Bft) 95,74 %
27.12.2017 20:06 5,2 C 4,4 C 3,3 C 92 % 15 lf 984,2 hPa 0,0 l/m 0 min 2 min 0 W/m 15,8 km/h (3 Bft) 93,62 %
27.12.2017 20:08 5,2 C 4,4 C 3,3 C 92 % 15 lf 984,2 hPa 0,0 l/m 0 min 2 min 0 W/m 11,3 km/h (2 Bft) 93,62 %
27.12.2017 20:10 5,2 C 4,4 C 3,3 C 92 % 15 lf 984,2 hPa 0,0 l/m 0 min 2 min 0 W/m 11,3 km/h (2 Bft) 95,74 %
27.12.2017 20:12 5,2 C 4,4 C 3,3 C 92 % 15 lf 984,3 hPa 0,0 l/m 0 min 2 min 0 W/m 11,3 km/h (2 Bft) 93,62 %
27.12.2017 20:14 5,2 C 4,4 C 3,3 C 92 % 15 lf 984,4 hPa 0,0 l/m 0 min 0 min 0 W/m 13,5 km/h (3 Bft) 97,83 %
27.12.2017 20:16 5,2 C 4,4 C 3,3 C 92 % 14 lf 984,4 hPa 0,0 l/m 0 min 0 min 0 W/m 13,5 km/h (3 Bft) 97,87 %
27.12.2017 20:18 5,2 C 4,4 C 3,3 C 92 % 15 lf 984,5 hPa 0,0 l/m 0 min 2 min 0 W/m 9,0 km/h (2 Bft) 95,74 %
27.12.2017 20:20 5,2 C 4,4 C 3,3 C 92 % 15 lf 984,5 hPa 0,0 l/m 0 min 2 min 0 W/m 11,3 km/h (2 Bft) 93,62 %
27.12.2017 20:22 5,2 C 4,4 C 3,3 C 92 % 15 lf 984,5 hPa 0,0 l/m 0 min 0 min 0 W/m 13,5 km/h (3 Bft) 97,87 %
27.12.2017 20:24 5,2 C 4,4 C 3,3 C 92 % 15 lf 984,5 hPa 0,0 l/m 0 min 2 min 0 W/m 13,5 km/h (3 Bft) 97,83 %
27.12.2017 20:26 5,2 C 4,4 C 3,3 C 92 % 15 lf 984,6 hPa 0,0 l/m 0 min 2 min 0 W/m 13,5 km/h (3 Bft) 97,87 %
27.12.2017 20:28 5,1 C 4,4 C 3,3 C 92 % 15 lf 984,7 hPa 0,0 l/m 0 min 2 min 0 W/m 11,3 km/h (2 Bft) 97,87 %
27.12.2017 20:30 5,1 C 4,4 C 3,3 C 92 % 15 lf 984,7 hPa 0,0 l/m 0 min 2 min 0 W/m 11,3 km/h (2 Bft) 97,87 %
27.12.2017 20:32 5,1 C 4,4 C 3,3 C 92 % 15 lf 984,7 hPa 0,2 l/m 0 min 2 min 0 W/m 13,5 km/h (3 Bft) 97,87 %
27.12.2017 20:34 5,1 C 4,4 C 3,3 C 92 % 15 lf 984,7 hPa 0,0 l/m 0 min 2 min 0 W/m 11,3 km/h (2 Bft) 100,00 %
27.12.2017 20:36 5,1 C 4,4 C 3,3 C 93 % 15 lf 984,7 hPa 0,0 l/m 0 min 2 min 0 W/m 9,0 km/h (2 Bft) 100,00 %
27.12.2017 20:38 5,1 C 4,4 C 3,3 C 93 % 15 lf 984,9 hPa 0,2 l/m 0 min 2 min 0 W/m 11,3 km/h (2 Bft) 100,00 %
27.12.2017 20:40 5,1 C 3,9 C 3,3 C 93 % 15 lf 984,9 hPa 0,2 l/m 0 min 2 min 0 W/m 11,3 km/h (2 Bft) 100,00 %
27.12.2017 20:42 5,1 C 3,9 C 3,3 C 93 % 15 lf 984,9 hPa 0,0 l/m 0 min 2 min 0 W/m 11,3 km/h (2 Bft) 95,74 %
27.12.2017 20:44 5,1 C 3,9 C 3,3 C 93 % 15 lf 985,0 hPa 0,2 l/m 0 min 2 min 0 W/m 11,3 km/h (2 Bft) 100,00 %
27.12.2017 20:46 5,1 C 3,9 C 3,3 C 93 % 15 lf 985,0 hPa 0,0 l/m 0 min 2 min 0 W/m 11,3 km/h (2 Bft) 100,00 %
27.12.2017 20:48 5,0 C 3,9 C 3,3 C 93 % 15 lf 985,1 hPa 0,2 l/m 0 min 2 min 0 W/m 9,0 km/h (2 Bft) 100,00 %
27.12.2017 20:50 5,0 C 3,9 C 3,3 C 93 % 15 lf 985,1 hPa 0,0 l/m 0 min 2 min 0 W/m 13,5 km/h (3 Bft) 97,87 %
27.12.2017 20:52 4,9 C 3,9 C 3,3 C 93 % 15 lf 985,0 hPa 0,2 l/m 0 min 2 min 0 W/m 11,3 km/h (2 Bft) 97,87 %
27.12.2017 20:54 4,9 C 3,9 C 3,3 C 93 % 15 lf 985,1 hPa 0,2 l/m 0 min 2 min 0 W/m 18,0 km/h (3 Bft) 100,00 %
27.12.2017 20:56 4,9 C 3,9 C 3,3 C 93 % 15 lf 985,1 hPa 0,2 l/m 0 min 2 min 0 W/m 15,8 km/h (3 Bft) 97,87 %
27.12.2017 20:58 4,9 C 3,9 C 2,8 C 93 % 15 lf 985,1 hPa 0,0 l/m 0 min 2 min 0 W/m 13,5 km/h (3 Bft) 100,00 %
27.12.2017 21:00 4,8 C 3,9 C 2,8 C 93 % 15 lf 985,1 hPa 0,2 l/m 0 min 2 min 0 W/m 11,3 km/h (2 Bft) 100,00 %
27.12.2017 21:02 4,8 C 3,9 C 2,8 C 93 % 15 lf 985,1 hPa 0,0 l/m 0 min 2 min 0 W/m 9,0 km/h (2 Bft) 93,62 %
27.12.2017 21:04 4,8 C 3,9 C 2,8 C 93 % 15 lf 985,1 hPa 0,0 l/m 0 min 2 min 0 W/m 9,0 km/h (2 Bft) 93,62 %
27.12.2017 21:06 4,8 C 3,9 C 2,8 C 94 % 15 lf 985,1 hPa 0,2 l/m 0 min 2 min 0 W/m 9,0 km/h (2 Bft) 100,00 %
27.12.2017 21:08 4,8 C 3,9 C 2,8 C 94 % 15 lf 985,2 hPa 0,0 l/m 0 min 2 min 0 W/m 6,8 km/h (2 Bft) 100,00 %
27.12.2017 21:10 4,7 C 3,9 C 2,8 C 94 % 15 lf 985,1 hPa 0,0 l/m 0 min 2 min 0 W/m 9,0 km/h (2 Bft) 100,00 %
27.12.2017 21:12 4,7 C 3,9 C 2,8 C 94 % 15 lf 985,2 hPa 0,0 l/m 0 min 2 min 0 W/m 9,0 km/h (2 Bft) 97,83 %
27.12.2017 21:14 4,7 C 3,9 C 2,8 C 94 % 15 lf 985,1 hPa 0,0 l/m 0 min 2 min 0 W/m 9,0 km/h (2 Bft) 97,87 %
27.12.2017 21:16 4,7 C 3,9 C 2,8 C 94 % 15 lf 985,2 hPa 0,0 l/m 0 min 2 min 0 W/m 9,0 km/h (2 Bft) 97,87 %
27.12.2017 21:18 4,7 C 3,9 C 2,8 C 94 % 15 lf 985,2 hPa 0,2 l/m 0 min 2 min 0 W/m 6,8 km/h (2 Bft) 97,87 %
27.12.2017 21:20 4,7 C 3,9 C 2,8 C 94 % 15 lf 985,3 hPa 0,0 l/m 0 min 2 min 0 W/m 9,0 km/h (2 Bft) 97,87 %
27.12.2017 21:22 4,7 C 3,9 C 3,3 C 94 % 15 lf 985,4 hPa 0,0 l/m 0 min 2 min 0 W/m 9,0 km/h (2 Bft) 95,74 %
27.12.2017 21:24 4,7 C 3,9 C 3,3 C 94 % 15 lf 985,4 hPa 0,0 l/m 0 min 2 min 0 W/m 9,0 km/h (2 Bft) 97,83 %
27.12.2017 21:26 4,7 C 3,9 C 3,3 C 94 % 15 lf 985,3 hPa 0,0 l/m 0 min 2 min 0 W/m 11,3 km/h (2 Bft) 97,87 %
27.12.2017 21:28 4,6 C 3,9 C 3,3 C 94 % 15 lf 985,3 hPa 0,0 l/m 0 min 2 min 0 W/m 11,3 km/h (2 Bft) 95,74 %
27.12.2017 21:30 4,6 C 3,9 C 3,3 C 94 % 15 lf 985,4 hPa 0,0 l/m 0 min 2 min 0 W/m 6,8 km/h (2 Bft) 95,74 %
27.12.2017 21:32 4,6 C 3,9 C 3,3 C 94 % 15 lf 985,4 hPa 0,0 l/m 0 min 2 min 0 W/m 9,0 km/h (2 Bft) 97,87 %
27.12.2017 21:34 4,6 C 3,9 C 3,3 C 94 % 15 lf 985,5 hPa 0,0 l/m 0 min 2 min 0 W/m 9,0 km/h (2 Bft) 97,87 %
27.12.2017 21:36 4,6 C 3,9 C 3,3 C 94 % 15 lf 985,4 hPa 0,0 l/m 0 min 2 min 0 W/m 9,0 km/h (2 Bft) 97,83 %
27.12.2017 21:38 4,6 C 3,9 C 3,3 C 94 % 15 lf 985,5 hPa 0,0 l/m 0 min 2 min 0 W/m 6,8 km/h (2 Bft) 97,87 %
27.12.2017 21:40 4,6 C 3,9 C 3,3 C 94 % 15 lf 985,5 hPa 0,0 l/m 0 min 2 min 0 W/m 9,0 km/h (2 Bft) 97,87 %
27.12.2017 21:42 4,6 C 3,9 C 3,3 C 94 % 15 lf 985,5 hPa 0,0 l/m 0 min 0 min 0 W/m 11,3 km/h (2 Bft) 97,87 %
27.12.2017 21:44 4,6 C 3,9 C 3,3 C 94 % 15 lf 985,5 hPa 0,0 l/m 0 min 0 min 0 W/m 11,3 km/h (2 Bft) 97,87 %
27.12.2017 21:46 4,6 C 3,9 C 3,3 C 94 % 15 lf 985,5 hPa 0,0 l/m 0 min 0 min 0 W/m 13,5 km/h (3 Bft) 97,83 %
27.12.2017 21:48 4,6 C 3,9 C 3,3 C 94 % 15 lf 985,6 hPa 0,0 l/m 0 min 0 min 0 W/m 15,8 km/h (3 Bft) 97,87 %
27.12.2017 21:50 4,7 C 3,9 C 3,3 C 95 % 15 lf 985,6 hPa 0,0 l/m 0 min 0 min 0 W/m 11,3 km/h (2 Bft) 100,00 %
27.12.2017 21:52 4,6 C 3,9 C 3,3 C 95 % 15 lf 985,7 hPa 0,0 l/m 0 min 0 min 0 W/m 13,5 km/h (3 Bft) 97,87 %
27.12.2017 21:54 4,7 C 3,9 C 3,3 C 95 % 15 lf 985,8 hPa 0,0 l/m 0 min 0 min 0 W/m 15,8 km/h (3 Bft) 100,00 %
27.12.2017 21:56 4,6 C 3,9 C 3,3 C 95 % 15 lf 985,8 hPa 0,0 l/m 0 min 0 min 0 W/m 18,0 km/h (3 Bft) 97,87 %
27.12.2017 21:58 4,6 C 3,9 C 3,3 C 95 % 15 lf 985,8 hPa 0,0 l/m 0 min 0 min 0 W/m 13,5 km/h (3 Bft) 95,65 %
27.12.2017 22:00 4,6 C 3,9 C 3,3 C 95 % 15 lf 985,8 hPa 0,0 l/m 0 min 0 min 0 W/m 11,3 km/h (2 Bft) 95,74 %
27.12.2017 22:02 4,7 C 3,9 C 3,3 C 95 % 15 lf 985,8 hPa 0,0 l/m 0 min 0 min 0 W/m 11,3 km/h (2 Bft) 95,74 %
27.12.2017 22:04 4,6 C 3,9 C 3,3 C 95 % 15 lf 985,8 hPa 0,2 l/m 0 min 0 min 0 W/m 15,8 km/h (3 Bft) 97,87 %
27.12.2017 22:06 4,6 C 3,9 C 3,3 C 95 % 15 lf 985,8 hPa 0,0 l/m 0 min 0 min 0 W/m 13,5 km/h (3 Bft) 97,87 %
27.12.2017 22:08 4,6 C 3,9 C 3,3 C 95 % 15 lf 985,9 hPa 0,0 l/m 0 min 0 min 0 W/m 15,8 km/h (3 Bft) 95,74 %
27.12.2017 22:10 4,6 C 3,9 C 3,3 C 95 % 15 lf 985,9 hPa 0,0 l/m 0 min 0 min 0 W/m 11,3 km/h (2 Bft) 93,48 %
27.12.2017 22:12 4,6 C 3,9 C 3,3 C 95 % 15 lf 986,1 hPa 0,0 l/m 0 min 0 min 0 W/m 18,0 km/h (3 Bft) 93,62 %
27.12.2017 22:14 4,6 C 3,9 C 3,3 C 95 % 15 lf 986,0 hPa 0,0 l/m 0 min 0 min 0 W/m 9,0 km/h (2 Bft) 93,62 %
27.12.2017 22:16 4,6 C 3,9 C 3,3 C 95 % 15 lf 986,0 hPa 0,0 l/m 0 min 0 min 0 W/m 13,5 km/h (3 Bft) 95,74 %
27.12.2017 22:18 4,6 C 3,9 C 3,3 C 95 % 15 lf 986,1 hPa 0,0 l/m 0 min 0 min 0 W/m 13,5 km/h (3 Bft) 93,62 %
27.12.2017 22:20 4,6 C 3,9 C 3,3 C 95 % 15 lf 986,1 hPa 0,0 l/m 0 min 0 min 0 W/m 18,0 km/h (3 Bft) 93,62 %
27.12.2017 22:22 4,6 C 3,9 C 3,3 C 95 % 15 lf 986,1 hPa 0,0 l/m 0 min 0 min 0 W/m 13,5 km/h (3 Bft) 93,48 %
27.12.2017 22:24 4,6 C 3,9 C 3,3 C 95 % 15 lf 986,1 hPa 0,0 l/m 0 min 0 min 0 W/m 11,3 km/h (2 Bft) 93,62 %
27.12.2017 22:26 4,6 C 3,9 C 3,3 C 95 % 15 lf 986,1 hPa 0,0 l/m 0 min 0 min 0 W/m 13,5 km/h (3 Bft) 95,74 %
27.12.2017 22:28 4,6 C 3,9 C 3,3 C 95 % 15 lf 986,1 hPa 0,0 l/m 0 min 0 min 0 W/m 15,8 km/h (3 Bft) 95,74 %
27.12.2017 22:30 4,6 C 4,4 C 3,3 C 95 % 15 lf 986,2 hPa 0,0 l/m 0 min 0 min 0 W/m 9,0 km/h (2 Bft) 93,62 %
27.12.2017 22:32 4,6 C 4,4 C 3,3 C 95 % 15 lf 986,1 hPa 0,0 l/m 0 min 0 min 0 W/m 15,8 km/h (3 Bft) 93,62 %
27.12.2017 22:34 4,6 C 4,4 C 3,3 C 95 % 15 lf 986,2 hPa 0,0 l/m 0 min 0 min 0 W/m 15,8 km/h (3 Bft) 95,65 %
27.12.2017 22:36 4,6 C 4,4 C 3,3 C 96 % 15 lf 986,1 hPa 0,0 l/m 0 min 0 min 0 W/m 18,0 km/h (3 Bft) 93,62 %
27.12.2017 22:38 4,7 C 4,4 C 3,3 C 95 % 15 lf 986,2 hPa 0,0 l/m 0 min 0 min 0 W/m 20,3 km/h (4 Bft) 95,74 %
27.12.2017 22:40 4,6 C 4,4 C 3,3 C 96 % 15 lf 986,3 hPa 0,0 l/m 0 min 0 min 0 W/m 11,3 km/h (2 Bft) 95,74 %
27.12.2017 22:42 4,7 C 4,4 C 3,3 C 96 % 15 lf 986,4 hPa 0,0 l/m 0 min 0 min 0 W/m 15,8 km/h (3 Bft) 89,36 %
27.12.2017 22:44 4,6 C 4,4 C 3,3 C 96 % 15 lf 986,4 hPa 0,0 l/m 0 min 0 min 0 W/m 15,8 km/h (3 Bft) 95,74 %
27.12.2017 22:46 4,7 C 4,4 C 3,3 C 96 % 15 lf 986,4 hPa 0,0 l/m 0 min 0 min 0 W/m 13,5 km/h (3 Bft) 95,65 %
27.12.2017 22:48 4,7 C 4,4 C 3,3 C 96 % 15 lf 986,5 hPa 0,0 l/m 0 min 0 min 0 W/m 20,3 km/h (4 Bft) 93,62 %
27.12.2017 22:50 4,7 C 4,4 C 3,3 C 96 % 15 lf 986,5 hPa 0,0 l/m 0 min 0 min 0 W/m 15,8 km/h (3 Bft) 97,87 %
27.12.2017 22:52 4,7 C 4,4 C 3,3 C 96 % 15 lf 986,6 hPa 0,0 l/m 0 min 0 min 0 W/m 15,8 km/h (3 Bft) 100,00 %
27.12.2017 22:54 4,7 C 4,4 C 3,3 C 96 % 15 lf 986,6 hPa 0,0 l/m 0 min 0 min 0 W/m 13,5 km/h (3 Bft) 100,00 %
27.12.2017 22:56 4,7 C 4,4 C 3,3 C 96 % 15 lf 986,6 hPa 0,0 l/m 0 min 0 min 0 W/m 29,3 km/h (5 Bft) 95,65 %
27.12.2017 22:58 4,6 C 3,9 C 3,3 C 96 % 15 lf 986,7 hPa 0,0 l/m 0 min 0 min 0 W/m 29,3 km/h (5 Bft) 97,87 %
27.12.2017 23:00 4,6 C 3,9 C 3,3 C 96 % 15 lf 986,7 hPa 0,0 l/m 0 min 0 min 0 W/m 20,3 km/h (4 Bft) 95,74 %
27.12.2017 23:02 4,6 C 3,9 C 3,3 C 96 % 15 lf 986,8 hPa 0,0 l/m 0 min 0 min 0 W/m 20,3 km/h (4 Bft) 95,83 %
27.12.2017 23:04 4,6 C 3,9 C 3,3 C 96 % 15 lf 986,9 hPa 0,0 l/m 0 min 0 min 0 W/m 18,0 km/h (3 Bft) 95,74 %
27.12.2017 23:06 4,6 C 3,9 C 3,3 C 96 % 15 lf 987,0 hPa 0,0 l/m 0 min 0 min 0 W/m 27,0 km/h (4 Bft) 93,62 %
27.12.2017 23:08 4,6 C 3,9 C 3,3 C 96 % 15 lf 986,9 hPa 0,0 l/m 0 min 0 min 0 W/m 29,3 km/h (5 Bft) 97,83 %
27.12.2017 23:10 4,5 C 3,9 C 2,8 C 96 % 15 lf 987,1 hPa 0,0 l/m 0 min 2 min 0 W/m 33,8 km/h (5 Bft) 97,87 %
27.12.2017 23:12 4,4 C 3,9 C 2,8 C 96 % 15 lf 987,1 hPa 0,0 l/m 0 min 0 min 0 W/m 33,8 km/h (5 Bft) 100,00 %
27.12.2017 23:14 4,4 C 3,9 C 2,8 C 96 % 15 lf 987,2 hPa 0,0 l/m 0 min 0 min 0 W/m 38,3 km/h (5 Bft) 97,87 %
27.12.2017 23:16 4,3 C 3,9 C 2,8 C 96 % 15 lf 987,2 hPa 0,0 l/m 0 min 2 min 0 W/m 33,8 km/h (5 Bft) 97,87 %
27.12.2017 23:18 4,2 C 3,3 C 2,8 C 96 % 15 lf 987,2 hPa 0,0 l/m 0 min 2 min 0 W/m 24,8 km/h (4 Bft) 95,74 %
27.12.2017 23:20 4,2 C 3,3 C 2,8 C 96 % 15 lf 987,2 hPa 0,0 l/m 0 min 0 min 0 W/m 24,8 km/h (4 Bft) 97,83 %
27.12.2017 23:22 4,2 C 3,3 C 2,8 C 96 % 15 lf 987,3 hPa 0,0 l/m 0 min 0 min 0 W/m 24,8 km/h (4 Bft) 97,87 %
27.12.2017 23:24 4,1 C 3,3 C 2,8 C 96 % 15 lf 987,4 hPa 0,0 l/m 0 min 0 min 0 W/m 24,8 km/h (4 Bft) 93,62 %
27.12.2017 23:26 4,1 C 3,3 C 2,8 C 96 % 15 lf 987,5 hPa 0,0 l/m 0 min 0 min 0 W/m 22,5 km/h (4 Bft) 95,74 %
27.12.2017 23:28 4,1 C 3,3 C 2,8 C 96 % 15 lf 987,5 hPa 0,0 l/m 0 min 0 min 0 W/m 29,3 km/h (5 Bft) 93,62 %
27.12.2017 23:30 4,0 C 3,3 C 2,2 C 96 % 15 lf 987,6 hPa 0,0 l/m 0 min 0 min 0 W/m 38,3 km/h (5 Bft) 95,74 %
27.12.2017 23:32 3,9 C 3,3 C 2,2 C 96 % 15 lf 987,7 hPa 0,0 l/m 0 min 2 min 0 W/m 38,3 km/h (5 Bft) 95,65 %
27.12.2017 23:34 3,9 C 3,3 C 2,2 C 96 % 15 lf 987,9 hPa 0,0 l/m 0 min 2 min 0 W/m 33,8 km/h (5 Bft) 95,74 %
27.12.2017 23:36 3,8 C 3,3 C 2,2 C 96 % 15 lf 987,9 hPa 0,0 l/m 0 min 0 min 0 W/m 24,8 km/h (4 Bft) 97,87 %
27.12.2017 23:38 3,8 C 3,3 C 2,2 C 96 % 15 lf 987,9 hPa 0,0 l/m 0 min 0 min 0 W/m 29,3 km/h (5 Bft) 97,87 %
27.12.2017 23:40 3,7 C 3,3 C 2,2 C 95 % 15 lf 987,9 hPa 0,0 l/m 0 min 0 min 0 W/m 22,5 km/h (4 Bft) 95,74 %
27.12.2017 23:42 3,7 C 3,3 C 2,2 C 95 % 15 lf 988,0 hPa 0,0 l/m 0 min 0 min 0 W/m 22,5 km/h (4 Bft) 97,83 %
27.12.2017 23:44 3,7 C 3,3 C 2,2 C 95 % 15 lf 988,1 hPa 0,0 l/m 0 min 0 min 0 W/m 38,3 km/h (5 Bft) 97,87 %
27.12.2017 23:46 3,7 C 2,8 C 2,2 C 95 % 15 lf 988,1 hPa 0,0 l/m 0 min 0 min 0 W/m 22,5 km/h (4 Bft) 97,87 %
27.12.2017 23:48 3,6 C 3,3 C 2,2 C 95 % 15 lf 988,1 hPa 0,0 l/m 0 min 0 min 0 W/m 22,5 km/h (4 Bft) 97,87 %
27.12.2017 23:50 3,6 C 2,8 C 2,2 C 95 % 15 lf 988,2 hPa 0,0 l/m 0 min 0 min 0 W/m 20,3 km/h (4 Bft) 97,87 %
27.12.2017 23:52 3,6 C 2,8 C 2,2 C 95 % 15 lf 988,2 hPa 0,0 l/m 0 min 0 min 0 W/m 22,5 km/h (4 Bft) 97,87 %
27.12.2017 23:54 3,6 C 2,8 C 2,2 C 95 % 14 lf 988,3 hPa 0,0 l/m 0 min 0 min 0 W/m 24,8 km/h (4 Bft) 97,83 %
27.12.2017 23:56 3,6 C 3,3 C 2,2 C 95 % 14 lf 988,4 hPa 0,0 l/m 0 min 0 min 0 W/m 24,8 km/h (4 Bft) 95,74 %
27.12.2017 23:58 3,6 C 3,3 C 2,2 C 95 % 14 lf 988,4 hPa 0,0 l/m 0 min 0 min 0 W/m 22,5 km/h (4 Bft) 93,62 %
_ Min-Zeit 23:48 23:46 17:18 05:52 00:00 14:08 - - - - 17:28 19:48
Minimum _ 3,6 C 2,8 C 1,1 C 80 % 0 lf 981,6 hPa - - - - 2,3 km/h (1 Bft) 85,11 %
_ Max-Zeit 14:56 13:30 05:26 11:26 19:52 00:00 07:56 13:02 06:10 13:04 05:42 01:32
Maximum _ 7,1 C 8,9 C 5,0 C 96 % 15 lf 993,2 hPa 0,2 l/m 2 min 4 min 208 W/m 47,3 km/h
S-SW (6 Bft)
100,00 %
Durchschnitt _ 5,4 C 5,1 C 3,6 C 90 % 4 lf 984,8 hPa #5,8 l/m #48 min. #7:42 h 58 W/m 20,1 km/h (4 Bft) 96,34 %
© 2017 W. Hausmann